Time,TemperatureF,DewpointF,PressureIn,WindDirection,WindDirectionDegrees,WindSpeedMPH,WindSpeedGustMPH,Humidity,HourlyPrecipIn,Conditions,Clouds,dailyrainin,SoftwareType,DateUTC
2013-01-18 00:01:00,15.4,7.0,30.33,NNW,339,3.0,4.0,69,0.00,,,0.00,Wunderground v.1.15,2013-01-18 06:01:00,
2013-01-18 00:04:00,15.4,7.4,30.33,NNW,339,2.0,3.0,70,0.00,,,0.00,Wunderground v.1.15,2013-01-18 06:04:00,
2013-01-18 00:08:00,15.2,7.2,30.33,NNW,339,3.0,3.0,70,0.00,,,0.00,Wunderground v.1.15,2013-01-18 06:08:00,
2013-01-18 00:12:00,15.1,7.4,30.33,NNW,339,3.0,3.0,71,0.00,,,0.00,Wunderground v.1.15,2013-01-18 06:12:00,
2013-01-18 00:13:00,15.1,7.4,30.33,NNW,339,2.0,3.0,71,0.00,,,0.00,Wunderground v.1.15,2013-01-18 06:13:00,
2013-01-18 00:14:00,15.1,7.4,30.33,NNW,339,3.0,3.0,71,0.00,,,0.00,Wunderground v.1.15,2013-01-18 06:14:00,
2013-01-18 00:17:00,15.1,7.4,30.33,NNW,339,3.0,3.0,71,0.00,,,0.00,Wunderground v.1.15,2013-01-18 06:17:00,
2013-01-18 00:22:00,15.1,7.7,30.33,NNW,339,3.0,3.0,72,0.00,,,0.00,Wunderground v.1.15,2013-01-18 06:22:00,
2013-01-18 00:23:00,15.1,7.7,30.33,NNW,338,3.0,3.0,72,0.00,,,0.00,Wunderground v.1.15,2013-01-18 06:23:00,
2013-01-18 00:27:00,15.1,7.4,30.33,NNW,338,3.0,3.0,71,0.00,,,0.00,Wunderground v.1.15,2013-01-18 06:27:00,
2013-01-18 00:32:00,14.9,7.2,30.33,NNW,338,2.0,3.0,71,0.00,,,0.00,Wunderground v.1.15,2013-01-18 06:32:00,
2013-01-18 00:33:00,14.9,7.5,30.33,NNW,338,1.0,3.0,72,0.00,,,0.00,Wunderground v.1.15,2013-01-18 06:33:00,
2013-01-18 00:34:00,14.9,7.5,30.33,NNW,338,2.0,3.0,72,0.00,,,0.00,Wunderground v.1.15,2013-01-18 06:34:00,
2013-01-18 00:38:00,14.8,7.4,30.33,NNW,338,1.0,3.0,72,0.00,,,0.00,Wunderground v.1.15,2013-01-18 06:38:00,
2013-01-18 00:39:00,14.8,7.4,30.33,NNW,338,0.0,3.0,72,0.00,,,0.00,Wunderground v.1.15,2013-01-18 06:39:00,
2013-01-18 00:43:00,14.6,7.2,30.33,NNW,338,1.0,1.0,72,0.00,,,0.00,Wunderground v.1.15,2013-01-18 06:43:00,
2013-01-18 00:44:00,14.6,7.2,30.33,NNW,338,1.0,1.0,72,0.00,,,0.00,Wunderground v.1.15,2013-01-18 06:44:00,
2013-01-18 00:47:00,14.4,7.0,30.33,NNW,338,2.0,2.0,72,0.00,,,0.00,Wunderground v.1.15,2013-01-18 06:47:00,
2013-01-18 00:48:00,14.4,7.0,30.33,NNW,338,1.0,2.0,72,0.00,,,0.00,Wunderground v.1.15,2013-01-18 06:48:00,
2013-01-18 00:52:00,14.3,6.9,30.33,NNW,338,1.0,1.0,72,0.00,,,0.00,Wunderground v.1.15,2013-01-18 06:52:00,
2013-01-18 00:54:00,14.4,7.0,30.34,NNW,338,2.0,2.0,72,0.00,,,0.00,Wunderground v.1.15,2013-01-18 06:54:00,
2013-01-18 00:57:00,14.3,6.9,30.34,NNW,338,1.0,2.0,72,0.00,,,0.00,Wunderground v.1.15,2013-01-18 06:57:00,
2013-01-18 00:59:00,14.3,6.9,30.34,NNW,338,1.0,2.0,72,0.00,,,0.00,Wunderground v.1.15,2013-01-18 06:59:00,
2013-01-18 01:03:00,14.4,7.0,30.34,NNW,338,1.0,1.0,72,0.00,,,0.00,Wunderground v.1.15,2013-01-18 07:03:00,
2013-01-18 01:08:00,14.3,6.9,30.33,NNW,338,0.0,1.0,72,0.00,,,0.00,Wunderground v.1.15,2013-01-18 07:08:00,
2013-01-18 01:09:00,14.3,6.9,30.33,NNW,338,0.0,1.0,72,0.00,,,0.00,Wunderground v.1.15,2013-01-18 07:09:00,
2013-01-18 01:12:00,14.3,6.9,30.33,NNW,338,0.0,0.0,72,0.00,,,0.00,Wunderground v.1.15,2013-01-18 07:12:00,
2013-01-18 01:13:00,14.1,7.0,30.33,NNW,338,2.0,2.0,73,0.00,,,0.00,Wunderground v.1.15,2013-01-18 07:13:00,
2013-01-18 01:17:00,14.1,7.0,30.33,NNW,338,0.0,2.0,73,0.00,,,0.00,Wunderground v.1.15,2013-01-18 07:17:00,
2013-01-18 01:19:00,14.1,7.0,30.33,NNW,338,0.0,2.0,73,0.00,,,0.00,Wunderground v.1.15,2013-01-18 07:19:00,
2013-01-18 01:23:00,14.0,6.9,30.33,NNW,338,0.0,0.0,73,0.00,,,0.00,Wunderground v.1.15,2013-01-18 07:23:00,
2013-01-18 01:24:00,14.0,6.9,30.33,NNW,338,0.0,0.0,73,0.00,,,0.00,Wunderground v.1.15,2013-01-18 07:24:00,
2013-01-18 01:27:00,13.8,6.7,30.33,NNW,338,0.0,0.0,73,0.00,,,0.00,Wunderground v.1.15,2013-01-18 07:27:00,
2013-01-18 01:28:00,13.8,6.7,30.33,NNW,338,0.0,0.0,73,0.00,,,0.00,Wunderground v.1.15,2013-01-18 07:28:00,
2013-01-18 01:33:00,13.6,6.8,30.33,NNW,338,0.0,0.0,74,0.00,,,0.00,Wunderground v.1.15,2013-01-18 07:33:00,
2013-01-18 01:34:00,13.6,6.8,30.33,NNW,338,0.0,0.0,74,0.00,,,0.00,Wunderground v.1.15,2013-01-18 07:34:00,
2013-01-18 01:37:00,13.5,6.8,30.33,NNW,338,0.0,0.0,74,0.00,,,0.00,Wunderground v.1.15,2013-01-18 07:37:00,
2013-01-18 01:38:00,13.5,6.8,30.33,NNW,338,0.0,0.0,74,0.00,,,0.00,Wunderground v.1.15,2013-01-18 07:38:00,
2013-01-18 01:42:00,13.3,6.6,30.33,NNW,338,1.0,1.0,74,0.00,,,0.00,Wunderground v.1.15,2013-01-18 07:42:00,
2013-01-18 01:43:00,13.3,6.6,30.33,NNW,338,2.0,2.0,74,0.00,,,0.00,Wunderground v.1.15,2013-01-18 07:43:00,
2013-01-18 01:44:00,13.3,6.6,30.33,NNW,338,2.0,2.0,74,0.00,,,0.00,Wunderground v.1.15,2013-01-18 07:44:00,
2013-01-18 01:49:00,12.9,6.5,30.33,NNW,341,3.0,3.0,75,0.00,,,0.00,Wunderground v.1.15,2013-01-18 07:49:00,
2013-01-18 01:52:00,13.1,6.7,30.33,NNW,341,2.0,2.0,75,0.00,,,0.00,Wunderground v.1.15,2013-01-18 07:52:00,
2013-01-18 01:53:00,13.1,6.7,30.33,NNW,341,2.0,2.0,75,0.00,,,0.00,Wunderground v.1.15,2013-01-18 07:53:00,
2013-01-18 01:57:00,13.3,7.1,30.33,NNW,342,1.0,2.0,76,0.00,,,0.00,Wunderground v.1.15,2013-01-18 07:57:00,
2013-01-18 01:58:00,13.3,7.1,30.33,NNW,347,2.0,2.0,76,0.00,,,0.00,Wunderground v.1.15,2013-01-18 07:58:00,
2013-01-18 02:03:00,13.5,7.0,30.33,ESE,110,2.0,3.0,75,0.00,,,0.00,Wunderground v.1.15,2013-01-18 08:03:00,
2013-01-18 02:04:00,13.5,7.0,30.33,ESE,110,2.0,3.0,75,0.00,,,0.00,Wunderground v.1.15,2013-01-18 08:04:00,
2013-01-18 02:05:00,13.5,7.0,30.33,ESE,111,2.0,3.0,75,0.00,,,0.00,Wunderground v.1.15,2013-01-18 08:05:00,
2013-01-18 02:09:00,13.6,6.8,30.33,ESE,112,2.0,3.0,74,0.00,,,0.00,Wunderground v.1.15,2013-01-18 08:09:00,
2013-01-18 02:12:00,13.6,6.8,30.33,ESE,112,2.0,2.0,74,0.00,,,0.00,Wunderground v.1.15,2013-01-18 08:12:00,
2013-01-18 02:13:00,13.6,6.8,30.33,ESE,112,3.0,3.0,74,0.00,,,0.00,Wunderground v.1.15,2013-01-18 08:13:00,
2013-01-18 02:14:00,13.6,6.8,30.33,ESE,110,2.0,3.0,74,0.00,,,0.00,Wunderground v.1.15,2013-01-18 08:14:00,
2013-01-18 02:15:00,13.6,6.8,30.33,ESE,110,2.0,3.0,74,0.00,,,0.00,Wunderground v.1.15,2013-01-18 08:15:00,
2013-01-18 02:19:00,13.6,6.8,30.33,ESE,110,1.0,3.0,74,0.00,,,0.00,Wunderground v.1.15,2013-01-18 08:19:00,
2013-01-18 02:20:00,13.6,6.5,30.33,ESE,110,1.0,3.0,73,0.00,,,0.00,Wunderground v.1.15,2013-01-18 08:20:00,
2013-01-18 02:23:00,13.8,6.7,30.33,ESE,111,0.0,2.0,73,0.00,,,0.00,Wunderground v.1.15,2013-01-18 08:23:00,
2013-01-18 02:24:00,13.8,6.7,30.33,ESE,111,1.0,2.0,73,0.00,,,0.00,Wunderground v.1.15,2013-01-18 08:24:00,
2013-01-18 02:25:00,13.8,6.7,30.33,ESE,111,1.0,2.0,73,0.00,,,0.00,Wunderground v.1.15,2013-01-18 08:25:00,
2013-01-18 02:29:00,13.8,6.4,30.33,ESE,111,0.0,2.0,72,0.00,,,0.00,Wunderground v.1.15,2013-01-18 08:29:00,
2013-01-18 02:30:00,13.8,6.4,30.33,ESE,111,0.0,2.0,72,0.00,,,0.00,Wunderground v.1.15,2013-01-18 08:30:00,
2013-01-18 02:32:00,13.8,6.4,30.33,ESE,111,0.0,1.0,72,0.00,,,0.00,Wunderground v.1.15,2013-01-18 08:32:00,
2013-01-18 02:33:00,13.8,6.4,30.33,ESE,111,0.0,1.0,72,0.00,,,0.00,Wunderground v.1.15,2013-01-18 08:33:00,
2013-01-18 02:34:00,13.8,6.7,30.33,ESE,111,0.0,1.0,73,0.00,,,0.00,Wunderground v.1.15,2013-01-18 08:34:00,
2013-01-18 02:38:00,13.5,6.8,30.33,ESE,111,1.0,1.0,74,0.00,,,0.00,Wunderground v.1.15,2013-01-18 08:38:00,
2013-01-18 02:40:00,13.5,6.8,30.35,ESE,111,0.0,1.0,74,0.00,,,0.00,Wunderground v.1.15,2013-01-18 08:40:00,
2013-01-18 02:41:00,13.3,6.9,30.35,ESE,111,1.0,1.0,75,0.00,,,0.00,Wunderground v.1.15,2013-01-18 08:41:00,
2013-01-18 02:43:00,13.3,6.9,30.35,ESE,111,0.0,1.0,75,0.00,,,0.00,Wunderground v.1.15,2013-01-18 08:43:00,
2013-01-18 02:44:00,13.3,6.9,30.35,ESE,111,0.0,1.0,75,0.00,,,0.00,Wunderground v.1.15,2013-01-18 08:44:00,
2013-01-18 02:48:00,13.3,6.9,30.35,ESE,111,2.0,2.0,75,0.00,,,0.00,Wunderground v.1.15,2013-01-18 08:48:00,
2013-01-18 02:49:00,13.3,6.9,30.35,ESE,111,1.0,2.0,75,0.00,,,0.00,Wunderground v.1.15,2013-01-18 08:49:00,
2013-01-18 02:52:00,13.3,7.1,30.35,ESE,111,2.0,2.0,76,0.00,,,0.00,Wunderground v.1.15,2013-01-18 08:52:00,
2013-01-18 02:53:00,13.5,7.3,30.35,ESE,111,2.0,2.0,76,0.00,,,0.00,Wunderground v.1.15,2013-01-18 08:53:00,
2013-01-18 02:54:00,13.5,7.3,30.35,ESE,111,0.0,2.0,76,0.00,,,0.00,Wunderground v.1.15,2013-01-18 08:54:00,
2013-01-18 02:56:00,13.5,7.3,30.35,ESE,111,1.0,2.0,76,0.00,,,0.00,Wunderground v.1.15,2013-01-18 08:56:00,
2013-01-18 02:58:00,13.5,7.3,30.35,ESE,111,1.0,2.0,76,0.00,,,0.00,Wunderground v.1.15,2013-01-18 08:58:00,
2013-01-18 02:59:00,13.6,7.4,30.35,ESE,111,1.0,2.0,76,0.00,,,0.00,Wunderground v.1.15,2013-01-18 08:59:00,
2013-01-18 03:03:00,13.6,7.4,30.35,ESE,111,1.0,2.0,76,0.00,,,0.00,Wunderground v.1.15,2013-01-18 09:03:00,
2013-01-18 03:04:00,13.6,7.4,30.35,ESE,111,0.0,2.0,76,0.00,,,0.00,Wunderground v.1.15,2013-01-18 09:04:00,
2013-01-18 03:08:00,13.8,7.6,30.34,ESE,111,1.0,2.0,76,0.00,,,0.00,Wunderground v.1.15,2013-01-18 09:08:00,
2013-01-18 03:09:00,13.8,7.6,30.34,ESE,111,0.0,2.0,76,0.00,,,0.00,Wunderground v.1.15,2013-01-18 09:09:00,
2013-01-18 03:12:00,13.8,7.9,30.34,ESE,111,1.0,1.0,77,0.00,,,0.00,Wunderground v.1.15,2013-01-18 09:12:00,
2013-01-18 03:13:00,13.8,7.9,30.34,ESE,111,1.0,1.0,77,0.00,,,0.00,Wunderground v.1.15,2013-01-18 09:13:00,
2013-01-18 03:14:00,13.8,7.9,30.34,ESE,111,2.0,2.0,77,0.00,,,0.00,Wunderground v.1.15,2013-01-18 09:14:00,
2013-01-18 03:15:00,13.8,7.9,30.34,ESE,111,1.0,2.0,77,0.00,,,0.00,Wunderground v.1.15,2013-01-18 09:15:00,
2013-01-18 03:18:00,14.0,8.1,30.34,ESE,111,2.0,2.0,77,0.00,,,0.00,Wunderground v.1.15,2013-01-18 09:18:00,
2013-01-18 03:19:00,14.0,8.1,30.34,ESE,111,1.0,2.0,77,0.00,,,0.00,Wunderground v.1.15,2013-01-18 09:19:00,
2013-01-18 03:23:00,14.0,8.1,30.34,ESE,122,2.0,2.0,77,0.00,,,0.00,Wunderground v.1.15,2013-01-18 09:23:00,
2013-01-18 03:24:00,14.0,8.1,30.33,SSE,156,3.0,3.0,77,0.00,,,0.00,Wunderground v.1.15,2013-01-18 09:24:00,
2013-01-18 03:25:00,14.0,8.1,30.33,South,173,3.0,3.0,77,0.00,,,0.00,Wunderground v.1.15,2013-01-18 09:25:00,
2013-01-18 03:28:00,14.1,8.2,30.33,South,188,3.0,3.0,77,0.00,,,0.00,Wunderground v.1.15,2013-01-18 09:28:00,
2013-01-18 03:29:00,14.1,7.9,30.33,SSW,193,4.0,4.0,76,0.00,,,0.00,Wunderground v.1.15,2013-01-18 09:29:00,
2013-01-18 03:32:00,14.1,7.9,30.33,SSW,193,2.0,3.0,76,0.00,,,0.00,Wunderground v.1.15,2013-01-18 09:32:00,
2013-01-18 03:33:00,14.1,7.9,30.33,SSW,193,1.0,3.0,76,0.00,,,0.00,Wunderground v.1.15,2013-01-18 09:33:00,
2013-01-18 03:35:00,14.3,8.1,30.33,SSW,193,2.0,3.0,76,0.00,,,0.00,Wunderground v.1.15,2013-01-18 09:35:00,
2013-01-18 03:37:00,14.3,7.8,30.33,SSW,193,1.0,3.0,75,0.00,,,0.00,Wunderground v.1.15,2013-01-18 09:37:00,
2013-01-18 03:39:00,14.3,7.8,30.33,SSW,193,2.0,3.0,75,0.00,,,0.00,Wunderground v.1.15,2013-01-18 09:39:00,
2013-01-18 03:42:00,14.3,7.8,30.33,SSW,194,2.0,2.0,75,0.00,,,0.00,Wunderground v.1.15,2013-01-18 09:42:00,
2013-01-18 03:43:00,14.4,7.9,30.33,SSW,194,2.0,2.0,75,0.00,,,0.00,Wunderground v.1.15,2013-01-18 09:43:00,
2013-01-18 03:48:00,14.4,7.9,30.33,SSW,194,3.0,3.0,75,0.00,,,0.00,Wunderground v.1.15,2013-01-18 09:48:00,
2013-01-18 03:49:00,14.4,7.9,30.33,SSW,194,2.0,3.0,75,0.00,,,0.00,Wunderground v.1.15,2013-01-18 09:49:00,
2013-01-18 03:53:00,14.6,8.1,30.33,SSW,194,2.0,3.0,75,0.00,,,0.00,Wunderground v.1.15,2013-01-18 09:53:00,
2013-01-18 03:54:00,14.6,8.1,30.33,SSW,194,1.0,3.0,75,0.00,,,0.00,Wunderground v.1.15,2013-01-18 09:54:00,
2013-01-18 03:55:00,14.6,8.1,30.33,SSW,194,1.0,3.0,75,0.00,,,0.00,Wunderground v.1.15,2013-01-18 09:55:00,
2013-01-18 03:59:00,14.6,8.1,30.33,SSW,194,4.0,4.0,75,0.00,,,0.00,Wunderground v.1.15,2013-01-18 09:59:00,
2013-01-18 04:02:00,14.6,8.1,30.33,SSW,194,3.0,3.0,75,0.00,,,0.00,Wunderground v.1.15,2013-01-18 10:02:00,
2013-01-18 04:03:00,14.8,8.3,30.33,SSW,194,3.0,3.0,75,0.00,,,0.00,Wunderground v.1.15,2013-01-18 10:03:00,
2013-01-18 04:04:00,14.8,8.3,30.33,SSW,194,4.0,4.0,75,0.00,,,0.00,Wunderground v.1.15,2013-01-18 10:04:00,
2013-01-18 04:08:00,14.8,8.3,30.33,SSW,198,2.0,4.0,75,0.00,,,0.00,Wunderground v.1.15,2013-01-18 10:08:00,
2013-01-18 04:09:00,14.8,8.3,30.32,SSW,197,3.0,4.0,75,0.00,,,0.00,Wunderground v.1.15,2013-01-18 10:09:00,
2013-01-18 04:10:00,14.8,8.3,30.32,SSW,197,2.0,4.0,75,0.00,,,0.00,Wunderground v.1.15,2013-01-18 10:10:00,
2013-01-18 04:14:00,14.9,8.4,30.32,SSW,198,3.0,4.0,75,0.00,,,0.00,Wunderground v.1.15,2013-01-18 10:14:00,
2013-01-18 04:15:00,14.9,8.4,30.32,SSW,198,2.0,4.0,75,0.00,,,0.00,Wunderground v.1.15,2013-01-18 10:15:00,
2013-01-18 04:19:00,14.9,8.4,30.32,SSW,198,2.0,4.0,75,0.00,,,0.00,Wunderground v.1.15,2013-01-18 10:19:00,
2013-01-18 04:22:00,15.1,8.6,30.32,SSW,198,2.0,2.0,75,0.00,,,0.00,Wunderground v.1.15,2013-01-18 10:22:00,
2013-01-18 04:23:00,15.1,8.6,30.31,SSW,198,1.0,2.0,75,0.00,,,0.00,Wunderground v.1.15,2013-01-18 10:23:00,
2013-01-18 04:25:00,15.1,8.6,30.31,SSW,198,1.0,2.0,75,0.00,,,0.00,Wunderground v.1.15,2013-01-18 10:25:00,
2013-01-18 04:27:00,15.1,8.6,30.31,SSW,196,2.0,3.0,75,0.00,,,0.00,Wunderground v.1.15,2013-01-18 10:27:00,
2013-01-18 04:28:00,15.1,8.6,30.31,SSW,196,3.0,3.0,75,0.00,,,0.00,Wunderground v.1.15,2013-01-18 10:28:00,
2013-01-18 04:30:00,15.2,8.4,30.31,South,190,3.0,4.0,74,0.00,,,0.00,Wunderground v.1.15,2013-01-18 10:30:00,
2013-01-18 04:33:00,15.2,8.4,30.31,South,188,2.0,3.0,74,0.00,,,0.00,Wunderground v.1.15,2013-01-18 10:33:00,
2013-01-18 04:34:00,15.2,8.4,30.31,South,188,2.0,3.0,74,0.00,,,0.00,Wunderground v.1.15,2013-01-18 10:34:00,
2013-01-18 04:38:00,15.2,8.4,30.31,SSE,162,3.0,3.0,74,0.00,,,0.00,Wunderground v.1.15,2013-01-18 10:38:00,
2013-01-18 04:39:00,15.4,8.6,30.30,SSE,149,3.0,4.0,74,0.00,,,0.00,Wunderground v.1.15,2013-01-18 10:39:00,
2013-01-18 04:43:00,15.4,8.3,30.30,SSE,150,1.0,3.0,73,0.00,,,0.00,Wunderground v.1.15,2013-01-18 10:43:00,
2013-01-18 04:44:00,15.4,8.3,30.30,SSE,149,3.0,3.0,73,0.00,,,0.00,Wunderground v.1.15,2013-01-18 10:44:00,
2013-01-18 04:45:00,15.4,8.3,30.30,SSE,150,2.0,3.0,73,0.00,,,0.00,Wunderground v.1.15,2013-01-18 10:45:00,
2013-01-18 04:49:00,15.6,8.5,30.30,SE,141,4.0,4.0,73,0.00,,,0.00,Wunderground v.1.15,2013-01-18 10:49:00,
2013-01-18 04:50:00,15.6,8.5,30.30,SE,139,4.0,4.0,73,0.00,,,0.00,Wunderground v.1.15,2013-01-18 10:50:00,
2013-01-18 04:53:00,15.6,8.2,30.30,SSE,154,3.0,4.0,72,0.00,,,0.00,Wunderground v.1.15,2013-01-18 10:53:00,
2013-01-18 04:54:00,15.6,8.2,30.30,SSE,151,5.0,5.0,72,0.00,,,0.00,Wunderground v.1.15,2013-01-18 10:54:00,
2013-01-18 04:59:00,15.6,8.2,30.30,SSE,154,4.0,5.0,72,0.00,,,0.00,Wunderground v.1.15,2013-01-18 10:59:00,
2013-01-18 05:02:00,15.7,8.0,30.30,SE,143,4.0,4.0,71,0.00,,,0.00,Wunderground v.1.15,2013-01-18 11:02:00,
2013-01-18 05:04:00,15.7,8.0,30.30,SSE,147,6.0,6.0,71,0.00,,,0.00,Wunderground v.1.15,2013-01-18 11:04:00,
2013-01-18 05:07:00,15.7,8.0,30.30,SE,141,4.0,7.0,71,0.00,,,0.00,Wunderground v.1.15,2013-01-18 11:07:00,
2013-01-18 05:08:00,15.7,8.0,30.30,SSE,150,4.0,7.0,71,0.00,,,0.00,Wunderground v.1.15,2013-01-18 11:08:00,
2013-01-18 05:09:00,15.7,8.0,30.29,SSE,150,3.0,7.0,71,0.00,,,0.00,Wunderground v.1.15,2013-01-18 11:09:00,
2013-01-18 05:11:00,15.9,8.2,30.29,SSE,150,4.0,7.0,71,0.00,,,0.00,Wunderground v.1.15,2013-01-18 11:11:00,
2013-01-18 05:12:00,15.9,8.2,30.29,SSE,148,6.0,6.0,71,0.00,,,0.00,Wunderground v.1.15,2013-01-18 11:12:00,
2013-01-18 05:14:00,15.9,7.8,30.29,SSE,159,7.0,7.0,70,0.00,,,0.00,Wunderground v.1.15,2013-01-18 11:14:00,
2013-01-18 05:17:00,15.9,7.8,30.29,South,172,5.0,7.0,70,0.00,,,0.00,Wunderground v.1.15,2013-01-18 11:17:00,
2013-01-18 05:18:00,15.9,7.8,30.29,SSE,154,9.0,9.0,70,0.00,,,0.00,Wunderground v.1.15,2013-01-18 11:18:00,
2013-01-18 05:20:00,15.9,7.8,30.29,South,176,6.0,9.0,70,0.00,,,0.00,Wunderground v.1.15,2013-01-18 11:20:00,
2013-01-18 05:23:00,15.9,8.2,30.27,SSE,153,5.0,6.0,71,0.00,,,0.00,Wunderground v.1.15,2013-01-18 11:23:00,
2013-01-18 05:24:00,15.9,8.2,30.27,SE,140,6.0,6.0,71,0.00,,,0.00,Wunderground v.1.15,2013-01-18 11:24:00,
2013-01-18 05:28:00,15.9,8.2,30.27,SSE,167,10.0,10.0,71,0.00,,,0.00,Wunderground v.1.15,2013-01-18 11:28:00,
2013-01-18 05:29:00,15.9,8.2,30.27,SSE,157,9.0,10.0,71,0.00,,,0.00,Wunderground v.1.15,2013-01-18 11:29:00,
2013-01-18 05:34:00,15.9,8.5,30.27,South,177,3.0,7.0,72,0.00,,,0.00,Wunderground v.1.15,2013-01-18 11:34:00,
2013-01-18 05:35:00,16.1,8.7,30.27,South,177,1.0,7.0,72,0.00,,,0.00,Wunderground v.1.15,2013-01-18 11:35:00,
2013-01-18 05:36:00,16.1,8.7,30.27,South,172,3.0,7.0,72,0.00,,,0.00,Wunderground v.1.15,2013-01-18 11:36:00,
2013-01-18 05:42:00,16.2,8.8,30.27,SE,135,4.0,4.0,72,0.00,,,0.00,Wunderground v.1.15,2013-01-18 11:42:00,
2013-01-18 05:43:00,16.2,8.8,30.27,SE,136,3.0,4.0,72,0.00,,,0.00,Wunderground v.1.15,2013-01-18 11:43:00,
2013-01-18 05:47:00,16.2,8.8,30.27,SSE,159,3.0,6.0,72,0.00,,,0.00,Wunderground v.1.15,2013-01-18 11:47:00,
2013-01-18 05:48:00,16.2,8.8,30.27,SSE,159,3.0,6.0,72,0.00,,,0.00,Wunderground v.1.15,2013-01-18 11:48:00,
2013-01-18 05:49:00,16.2,8.8,30.27,SE,143,4.0,6.0,72,0.00,,,0.00,Wunderground v.1.15,2013-01-18 11:49:00,
2013-01-18 05:52:00,16.2,8.8,30.27,South,181,6.0,6.0,72,0.00,,,0.00,Wunderground v.1.15,2013-01-18 11:52:00,
2013-01-18 05:53:00,16.2,9.1,30.27,South,177,2.0,6.0,73,0.00,,,0.00,Wunderground v.1.15,2013-01-18 11:53:00,
2013-01-18 05:54:00,16.4,9.3,30.27,South,175,3.0,6.0,73,0.00,,,0.00,Wunderground v.1.15,2013-01-18 11:54:00,
2013-01-18 05:55:00,16.4,9.3,30.27,South,173,4.0,6.0,73,0.00,,,0.00,Wunderground v.1.15,2013-01-18 11:55:00,
2013-01-18 05:59:00,16.4,9.3,30.27,SSE,167,4.0,6.0,73,0.00,,,0.00,Wunderground v.1.15,2013-01-18 11:59:00,
2013-01-18 06:00:00,16.4,9.3,30.27,SSE,167,3.0,6.0,73,0.00,,,0.00,Wunderground v.1.15,2013-01-18 12:00:00,
2013-01-18 06:03:00,16.4,9.3,30.27,SSE,166,3.0,4.0,73,0.00,,,0.00,Wunderground v.1.15,2013-01-18 12:03:00,
2013-01-18 06:04:00,16.4,9.3,30.27,South,174,3.0,6.0,73,0.00,,,0.00,Wunderground v.1.15,2013-01-18 12:04:00,
2013-01-18 06:05:00,16.5,9.4,30.27,SSE,167,4.0,6.0,73,0.00,,,0.00,Wunderground v.1.15,2013-01-18 12:05:00,
2013-01-18 06:08:00,16.5,9.4,30.27,South,178,5.0,6.0,73,0.00,,,0.00,Wunderground v.1.15,2013-01-18 12:08:00,
2013-01-18 06:09:00,16.5,9.4,30.27,South,187,9.0,9.0,73,0.00,,,0.00,Wunderground v.1.15,2013-01-18 12:09:00,
2013-01-18 06:12:00,16.5,9.4,30.27,South,171,6.0,6.0,73,0.00,,,0.00,Wunderground v.1.15,2013-01-18 12:12:00,
2013-01-18 06:13:00,16.5,9.4,30.27,South,187,7.0,7.0,73,0.00,,,0.00,Wunderground v.1.15,2013-01-18 12:13:00,
2013-01-18 06:14:00,16.5,9.4,30.27,South,189,10.0,10.0,73,0.00,,,0.00,Wunderground v.1.15,2013-01-18 12:14:00,
2013-01-18 06:19:00,16.7,9.5,30.27,South,179,3.0,10.0,73,0.00,,,0.00,Wunderground v.1.15,2013-01-18 12:19:00,
2013-01-18 06:21:00,16.7,9.5,30.27,South,181,2.0,10.0,73,0.00,,,0.00,Wunderground v.1.15,2013-01-18 12:21:00,
2013-01-18 06:24:00,16.9,9.7,30.27,SSW,193,6.0,6.0,73,0.00,,,0.00,Wunderground v.1.15,2013-01-18 12:24:00,
2013-01-18 06:25:00,16.9,9.7,30.27,SSW,192,4.0,6.0,73,0.00,,,0.00,Wunderground v.1.15,2013-01-18 12:25:00,
2013-01-18 06:27:00,16.9,9.7,30.27,SSE,162,3.0,6.0,73,0.00,,,0.00,Wunderground v.1.15,2013-01-18 12:27:00,
2013-01-18 06:29:00,16.9,9.7,30.27,SSE,160,4.0,6.0,73,0.00,,,0.00,Wunderground v.1.15,2013-01-18 12:29:00,
2013-01-18 06:30:00,16.9,9.7,30.27,SSE,160,3.0,6.0,73,0.00,,,0.00,Wunderground v.1.15,2013-01-18 12:30:00,
2013-01-18 06:33:00,17.0,9.5,30.27,SSE,151,7.0,7.0,72,0.00,,,0.00,Wunderground v.1.15,2013-01-18 12:33:00,
2013-01-18 06:34:00,17.0,9.5,30.27,SSE,155,4.0,7.0,72,0.00,,,0.00,Wunderground v.1.15,2013-01-18 12:34:00,
2013-01-18 06:37:00,17.0,9.5,30.27,SSE,148,2.0,7.0,72,0.00,,,0.00,Wunderground v.1.15,2013-01-18 12:37:00,
2013-01-18 06:39:00,17.2,9.7,30.25,SSE,154,6.0,10.0,72,0.00,,,0.00,Wunderground v.1.15,2013-01-18 12:39:00,
2013-01-18 06:40:00,17.2,9.7,30.25,South,179,2.0,10.0,72,0.00,,,0.00,Wunderground v.1.15,2013-01-18 12:40:00,
2013-01-18 06:43:00,17.2,9.7,30.25,SE,146,5.0,9.0,72,0.00,,,0.00,Wunderground v.1.15,2013-01-18 12:43:00,
2013-01-18 06:44:00,17.2,9.4,30.25,SSE,165,3.0,9.0,71,0.00,,,0.00,Wunderground v.1.15,2013-01-18 12:44:00,
2013-01-18 06:48:00,17.3,9.5,30.25,South,180,4.0,9.0,71,0.00,,,0.00,Wunderground v.1.15,2013-01-18 12:48:00,
2013-01-18 06:49:00,17.3,9.5,30.25,South,189,5.0,9.0,71,0.00,,,0.00,Wunderground v.1.15,2013-01-18 12:49:00,
2013-01-18 06:53:00,17.3,9.2,30.25,South,191,6.0,6.0,70,0.00,,,0.00,Wunderground v.1.15,2013-01-18 12:53:00,
2013-01-18 06:54:00,17.3,9.2,30.25,SSW,198,9.0,9.0,70,0.00,,,0.00,Wunderground v.1.15,2013-01-18 12:54:00,
2013-01-18 06:57:00,17.5,9.4,30.25,South,184,8.0,10.0,70,0.00,,,0.00,Wunderground v.1.15,2013-01-18 12:57:00,
2013-01-18 06:58:00,17.5,9.4,30.25,South,179,5.0,10.0,70,0.00,,,0.00,Wunderground v.1.15,2013-01-18 12:58:00,
2013-01-18 06:59:00,17.5,9.4,30.25,South,183,4.0,10.0,70,0.00,,,0.00,Wunderground v.1.15,2013-01-18 12:59:00,
2013-01-18 07:02:00,17.5,9.4,30.25,South,174,4.0,7.0,70,0.00,,,0.00,Wunderground v.1.15,2013-01-18 13:02:00,
2013-01-18 07:03:00,17.5,9.4,30.25,SSE,160,5.0,7.0,70,0.00,,,0.00,Wunderground v.1.15,2013-01-18 13:03:00,
2013-01-18 07:05:00,17.7,9.6,30.25,South,179,4.0,9.0,70,0.00,,,0.00,Wunderground v.1.15,2013-01-18 13:05:00,
2013-01-18 07:07:00,17.7,9.6,30.25,SSE,159,9.0,12.0,70,0.00,,,0.00,Wunderground v.1.15,2013-01-18 13:07:00,
2013-01-18 07:08:00,17.7,9.6,30.25,SSE,158,6.0,12.0,70,0.00,,,0.00,Wunderground v.1.15,2013-01-18 13:08:00,
2013-01-18 07:09:00,17.7,9.6,30.25,South,172,10.0,12.0,70,0.00,,,0.00,Wunderground v.1.15,2013-01-18 13:09:00,
2013-01-18 07:13:00,17.8,9.3,30.25,SSE,165,6.0,9.0,69,0.00,,,0.00,Wunderground v.1.15,2013-01-18 13:13:00,
2013-01-18 07:14:00,17.8,9.3,30.25,SSE,161,10.0,13.0,69,0.00,,,0.00,Wunderground v.1.15,2013-01-18 13:14:00,
2013-01-18 07:17:00,17.8,9.3,30.25,SSE,158,12.0,13.0,69,0.00,,,0.00,Wunderground v.1.15,2013-01-18 13:17:00,
2013-01-18 07:19:00,17.8,9.3,30.25,South,176,10.0,13.0,69,0.00,,,0.00,Wunderground v.1.15,2013-01-18 13:19:00,
2013-01-18 07:20:00,17.8,9.3,30.25,South,172,10.0,13.0,69,0.00,,,0.00,Wunderground v.1.15,2013-01-18 13:20:00,
2013-01-18 07:24:00,18.0,9.5,30.24,South,172,6.0,11.0,69,0.00,,,0.00,Wunderground v.1.15,2013-01-18 13:24:00,
2013-01-18 07:27:00,18.0,9.5,30.24,South,186,5.0,11.0,69,0.00,,,0.00,Wunderground v.1.15,2013-01-18 13:27:00,
2013-01-18 07:28:00,18.0,9.5,30.24,SSW,193,10.0,11.0,69,0.00,,,0.00,Wunderground v.1.15,2013-01-18 13:28:00,
2013-01-18 07:32:00,18.0,9.9,30.24,SSW,194,5.0,7.0,70,0.00,,,0.00,Wunderground v.1.15,2013-01-18 13:32:00,
2013-01-18 07:33:00,18.0,9.9,30.24,SSW,194,5.0,7.0,70,0.00,,,0.00,Wunderground v.1.15,2013-01-18 13:33:00,
2013-01-18 07:39:00,18.1,10.0,30.25,South,189,6.0,9.0,70,0.00,,,0.00,Wunderground v.1.15,2013-01-18 13:39:00,
2013-01-18 07:42:00,18.1,10.3,30.25,South,181,8.0,8.0,71,0.00,,,0.00,Wunderground v.1.15,2013-01-18 13:42:00,
2013-01-18 07:44:00,18.3,10.5,30.25,SSE,165,4.0,10.0,71,0.00,,,0.00,Wunderground v.1.15,2013-01-18 13:44:00,
2013-01-18 07:48:00,18.3,10.5,30.25,South,177,11.0,11.0,71,0.00,,,0.00,Wunderground v.1.15,2013-01-18 13:48:00,
2013-01-18 07:49:00,18.4,10.6,30.25,SSW,194,8.0,12.0,71,0.00,,,0.00,Wunderground v.1.15,2013-01-18 13:49:00,
2013-01-18 07:51:00,18.4,10.6,30.25,South,183,3.0,12.0,71,0.00,,,0.00,Wunderground v.1.15,2013-01-18 13:51:00,
2013-01-18 07:54:00,18.6,11.1,30.24,South,184,8.0,11.0,72,0.00,,,0.00,Wunderground v.1.15,2013-01-18 13:54:00,
2013-01-18 07:57:00,18.6,11.1,30.24,SSW,197,10.0,11.0,72,0.00,,,0.00,Wunderground v.1.15,2013-01-18 13:57:00,
2013-01-18 07:58:00,18.6,11.1,30.24,South,179,9.0,11.0,72,0.00,,,0.00,Wunderground v.1.15,2013-01-18 13:58:00,
2013-01-18 08:02:00,18.8,11.3,30.24,South,179,6.0,9.0,72,0.00,,,0.00,Wunderground v.1.15,2013-01-18 14:02:00,
2013-01-18 08:03:00,18.8,11.3,30.24,South,187,7.0,10.0,72,0.00,,,0.00,Wunderground v.1.15,2013-01-18 14:03:00,
2013-01-18 08:07:00,18.9,11.4,30.24,South,181,9.0,10.0,72,0.00,,,0.00,Wunderground v.1.15,2013-01-18 14:07:00,
2013-01-18 08:08:00,19.1,11.6,30.24,SSE,155,7.0,10.0,72,0.00,,,0.00,Wunderground v.1.15,2013-01-18 14:08:00,
2013-01-18 08:12:00,19.2,11.6,30.23,SSW,198,10.0,10.0,72,0.00,,,0.00,Wunderground v.1.15,2013-01-18 14:12:00,
2013-01-18 08:13:00,19.2,11.6,30.23,SSW,195,10.0,11.0,72,0.00,,,0.00,Wunderground v.1.15,2013-01-18 14:13:00,
2013-01-18 08:14:00,19.2,11.6,30.23,SW,218,8.0,11.0,72,0.00,,,0.00,Wunderground v.1.15,2013-01-18 14:14:00,
2013-01-18 08:18:00,19.4,12.2,30.23,South,188,9.0,12.0,73,0.00,,,0.00,Wunderground v.1.15,2013-01-18 14:18:00,
2013-01-18 08:19:00,19.4,12.2,30.23,SSW,192,5.0,12.0,73,0.00,,,0.00,Wunderground v.1.15,2013-01-18 14:19:00,
2013-01-18 08:23:00,19.7,12.4,30.22,South,184,15.0,15.0,73,0.00,,,0.00,Wunderground v.1.15,2013-01-18 14:23:00,
2013-01-18 08:25:00,19.7,12.4,30.22,SSE,155,12.0,19.0,73,0.00,,,0.00,Wunderground v.1.15,2013-01-18 14:25:00,
2013-01-18 08:26:00,19.9,12.6,30.22,South,183,13.0,19.0,73,0.00,,,0.00,Wunderground v.1.15,2013-01-18 14:26:00,
2013-01-18 08:32:00,20.2,12.9,30.22,South,171,13.0,13.0,73,0.00,,,0.00,Wunderground v.1.15,2013-01-18 14:32:00,
2013-01-18 08:33:00,20.2,12.9,30.22,SW,217,15.0,15.0,73,0.00,,,0.00,Wunderground v.1.15,2013-01-18 14:33:00,
2013-01-18 08:35:00,20.2,13.2,30.22,SSW,194,10.0,16.0,74,0.00,,,0.00,Wunderground v.1.15,2013-01-18 14:35:00,
2013-01-18 08:38:00,20.2,13.2,30.22,SSW,205,11.0,17.0,74,0.00,,,0.00,Wunderground v.1.15,2013-01-18 14:38:00,
2013-01-18 08:39:00,20.2,13.2,30.20,SSW,203,12.0,17.0,74,0.00,,,0.00,Wunderground v.1.15,2013-01-18 14:39:00,
2013-01-18 08:43:00,20.3,13.3,30.20,SSW,212,12.0,18.0,74,0.00,,,0.00,Wunderground v.1.15,2013-01-18 14:43:00,
2013-01-18 08:47:00,20.5,13.8,30.20,South,180,14.0,18.0,75,0.00,,,0.00,Wunderground v.1.15,2013-01-18 14:47:00,
2013-01-18 08:48:00,20.6,13.9,30.20,SW,218,13.0,18.0,75,0.00,,,0.00,Wunderground v.1.15,2013-01-18 14:48:00,
2013-01-18 08:49:00,20.6,13.9,30.20,South,183,14.0,18.0,75,0.00,,,0.00,Wunderground v.1.15,2013-01-18 14:49:00,
2013-01-18 08:50:00,20.6,13.9,30.20,South,175,12.0,18.0,75,0.00,,,0.00,Wunderground v.1.15,2013-01-18 14:50:00,
2013-01-18 08:53:00,20.8,14.1,30.20,South,184,12.0,18.0,75,0.00,,,0.00,Wunderground v.1.15,2013-01-18 14:53:00,
2013-01-18 08:54:00,20.8,14.1,30.19,SSW,210,6.0,18.0,75,0.00,,,0.00,Wunderground v.1.15,2013-01-18 14:54:00,
2013-01-18 08:55:00,20.8,14.1,30.19,South,184,14.0,18.0,75,0.00,,,0.00,Wunderground v.1.15,2013-01-18 14:55:00,
2013-01-18 08:59:00,21.1,14.4,30.19,South,188,19.0,25.0,75,0.00,,,0.00,Wunderground v.1.15,2013-01-18 14:59:00,
2013-01-18 09:02:00,21.3,14.6,30.19,SSW,193,15.0,15.0,75,0.00,,,0.00,Wunderground v.1.15,2013-01-18 15:02:00,
2013-01-18 09:03:00,21.4,14.7,30.19,South,183,16.0,16.0,75,0.00,,,0.00,Wunderground v.1.15,2013-01-18 15:03:00,
2013-01-18 09:05:00,21.4,14.7,30.19,SSW,200,14.0,16.0,75,0.00,,,0.00,Wunderground v.1.15,2013-01-18 15:05:00,
2013-01-18 09:07:00,21.6,14.9,30.19,SW,224,16.0,17.0,75,0.00,,,0.00,Wunderground v.1.15,2013-01-18 15:07:00,
2013-01-18 09:08:00,21.8,15.1,30.19,SSW,213,18.0,20.0,75,0.00,,,0.00,Wunderground v.1.15,2013-01-18 15:08:00,
2013-01-18 09:09:00,21.8,15.1,30.17,South,187,15.0,20.0,75,0.00,,,0.00,Wunderground v.1.15,2013-01-18 15:09:00,
2013-01-18 09:12:00,22.1,15.4,30.17,South,189,18.0,22.0,75,0.00,,,0.00,Wunderground v.1.15,2013-01-18 15:12:00,
2013-01-18 09:13:00,22.1,15.4,30.17,South,174,15.0,22.0,75,0.00,,,0.00,Wunderground v.1.15,2013-01-18 15:13:00,
2013-01-18 09:14:00,22.2,15.5,30.17,SSW,210,18.0,22.0,75,0.00,,,0.00,Wunderground v.1.15,2013-01-18 15:14:00,
2013-01-18 09:17:00,22.4,15.7,30.17,South,191,15.0,22.0,75,0.00,,,0.00,Wunderground v.1.15,2013-01-18 15:17:00,
2013-01-18 09:18:00,22.4,15.7,30.17,SW,214,15.0,22.0,75,0.00,,,0.00,Wunderground v.1.15,2013-01-18 15:18:00,
2013-01-18 09:21:00,22.7,16.0,30.17,South,188,14.0,22.0,75,0.00,,,0.00,Wunderground v.1.15,2013-01-18 15:21:00,
2013-01-18 09:24:00,22.9,16.2,30.16,SW,214,17.0,22.0,75,0.00,,,0.00,Wunderground v.1.15,2013-01-18 15:24:00,
2013-01-18 09:25:00,23.0,16.3,30.16,SW,220,13.0,22.0,75,0.00,,,0.00,Wunderground v.1.15,2013-01-18 15:25:00,
2013-01-18 09:28:00,23.2,16.1,30.16,SSW,211,9.0,22.0,74,0.00,,,0.00,Wunderground v.1.15,2013-01-18 15:28:00,
2013-01-18 09:29:00,23.3,16.2,30.16,SSW,203,15.0,22.0,74,0.00,,,0.00,Wunderground v.1.15,2013-01-18 15:29:00,
2013-01-18 09:32:00,23.6,16.5,30.16,South,172,18.0,18.0,74,0.00,,,0.00,Wunderground v.1.15,2013-01-18 15:32:00,
2013-01-18 09:34:00,23.8,16.7,30.16,SSW,208,19.0,19.0,74,0.00,,,0.00,Wunderground v.1.15,2013-01-18 15:34:00,
2013-01-18 09:38:00,24.2,17.1,30.16,SSW,192,17.0,26.0,74,0.00,,,0.00,Wunderground v.1.15,2013-01-18 15:38:00,
2013-01-18 09:39:00,24.4,16.7,30.15,SSW,201,16.0,26.0,72,0.00,,,0.00,Wunderground v.1.15,2013-01-18 15:39:00,
2013-01-18 09:40:00,24.4,16.7,30.15,SW,214,13.0,26.0,72,0.00,,,0.00,Wunderground v.1.15,2013-01-18 15:40:00,
2013-01-18 09:43:00,24.7,17.0,30.15,SSW,213,13.0,17.0,72,0.00,,,0.00,Wunderground v.1.15,2013-01-18 15:43:00,
2013-01-18 09:45:00,24.8,17.1,30.15,South,190,14.0,17.0,72,0.00,,,0.00,Wunderground v.1.15,2013-01-18 15:45:00,
2013-01-18 09:47:00,25.3,17.2,30.15,South,173,20.0,20.0,71,0.00,,,0.00,Wunderground v.1.15,2013-01-18 15:47:00,
2013-01-18 09:48:00,25.3,17.2,30.15,SSW,193,17.0,21.0,71,0.00,,,0.00,Wunderground v.1.15,2013-01-18 15:48:00,
2013-01-18 09:53:00,25.7,17.3,30.15,South,181,28.0,28.0,70,0.00,,,0.00,Wunderground v.1.15,2013-01-18 15:53:00,
2013-01-18 09:54:00,25.8,17.4,30.13,SSW,210,15.0,28.0,70,0.00,,,0.00,Wunderground v.1.15,2013-01-18 15:54:00,
2013-01-18 09:58:00,26.1,17.3,30.13,SSW,208,9.0,28.0,69,0.00,,,0.00,Wunderground v.1.15,2013-01-18 15:58:00,
2013-01-18 09:59:00,26.1,17.3,30.13,SSW,200,12.0,28.0,69,0.00,,,0.00,Wunderground v.1.15,2013-01-18 15:59:00,
2013-01-18 10:03:00,26.4,17.6,30.13,SW,219,10.0,18.0,69,0.00,,,0.00,Wunderground v.1.15,2013-01-18 16:03:00,
2013-01-18 10:04:00,26.6,17.8,30.13,SSW,208,12.0,18.0,69,0.00,,,0.00,Wunderground v.1.15,2013-01-18 16:04:00,
2013-01-18 10:05:00,26.7,17.9,30.13,SSW,208,15.0,18.0,69,0.00,,,0.00,Wunderground v.1.15,2013-01-18 16:05:00,
2013-01-18 10:08:00,27.0,18.2,30.13,SSW,213,9.0,22.0,69,0.00,,,0.00,Wunderground v.1.15,2013-01-18 16:08:00,
2013-01-18 10:12:00,27.5,18.3,30.12,South,183,16.0,16.0,68,0.00,,,0.00,Wunderground v.1.15,2013-01-18 16:12:00,
2013-01-18 10:13:00,27.6,18.4,30.12,SW,225,7.0,16.0,68,0.00,,,0.00,Wunderground v.1.15,2013-01-18 16:13:00,
2013-01-18 10:18:00,28.2,18.6,30.12,South,191,15.0,21.0,67,0.00,,,0.00,Wunderground v.1.15,2013-01-18 16:18:00,
2013-01-18 10:19:00,28.2,18.6,30.12,SW,220,14.0,21.0,67,0.00,,,0.00,Wunderground v.1.15,2013-01-18 16:19:00,
2013-01-18 10:23:00,28.8,18.9,30.12,WSW,238,16.0,19.0,66,0.00,,,0.00,Wunderground v.1.15,2013-01-18 16:23:00,
2013-01-18 10:24:00,29.0,18.7,30.10,SW,218,14.0,19.0,65,0.00,,,0.00,Wunderground v.1.15,2013-01-18 16:24:00,
2013-01-18 10:27:00,29.0,18.7,30.10,South,178,15.0,24.0,65,0.00,,,0.00,Wunderground v.1.15,2013-01-18 16:27:00,
2013-01-18 10:28:00,29.0,18.7,30.10,SSW,204,14.0,24.0,65,0.00,,,0.00,Wunderground v.1.15,2013-01-18 16:28:00,
2013-01-18 10:29:00,29.0,18.7,30.10,WSW,253,15.0,24.0,65,0.00,,,0.00,Wunderground v.1.15,2013-01-18 16:29:00,
2013-01-18 10:30:00,29.0,18.7,30.10,South,185,20.0,24.0,65,0.00,,,0.00,Wunderground v.1.15,2013-01-18 16:30:00,
2013-01-18 10:33:00,29.3,19.0,30.10,SW,226,15.0,17.0,65,0.00,,,0.00,Wunderground v.1.15,2013-01-18 16:33:00,
2013-01-18 10:35:00,29.4,19.1,30.10,SSW,208,10.0,20.0,65,0.00,,,0.00,Wunderground v.1.15,2013-01-18 16:35:00,
2013-01-18 10:38:00,29.5,19.2,30.10,SW,225,14.0,26.0,65,0.00,,,0.00,Wunderground v.1.15,2013-01-18 16:38:00,
2013-01-18 10:39:00,29.7,19.4,30.08,South,175,15.0,27.0,65,0.00,,,0.00,Wunderground v.1.15,2013-01-18 16:39:00,
2013-01-18 10:42:00,30.1,19.7,30.08,SW,233,11.0,18.0,65,0.00,,,0.00,Wunderground v.1.15,2013-01-18 16:42:00,
2013-01-18 10:43:00,30.1,19.4,30.08,West,269,14.0,18.0,64,0.00,,,0.00,Wunderground v.1.15,2013-01-18 16:43:00,
2013-01-18 10:44:00,30.4,20.0,30.08,South,186,9.0,18.0,65,0.00,,,0.00,Wunderground v.1.15,2013-01-18 16:44:00,
2013-01-18 10:48:00,30.7,20.0,30.08,SW,217,13.0,24.0,64,0.00,,,0.00,Wunderground v.1.15,2013-01-18 16:48:00,
2013-01-18 10:49:00,30.7,20.0,30.08,WSW,240,16.0,25.0,64,0.00,,,0.00,Wunderground v.1.15,2013-01-18 16:49:00,
2013-01-18 10:53:00,31.0,19.9,30.05,SSW,211,15.0,26.0,63,0.00,,,0.00,Wunderground v.1.15,2013-01-18 16:53:00,
2013-01-18 10:54:00,31.2,20.1,30.05,SW,223,16.0,26.0,63,0.00,,,0.00,Wunderground v.1.15,2013-01-18 16:54:00,
2013-01-18 10:58:00,31.3,20.2,30.05,SW,221,17.0,27.0,63,0.00,,,0.00,Wunderground v.1.15,2013-01-18 16:58:00,
2013-01-18 10:59:00,31.5,20.3,30.05,SSW,193,13.0,27.0,63,0.00,,,0.00,Wunderground v.1.15,2013-01-18 16:59:00,
2013-01-18 11:03:00,31.8,20.6,30.05,WSW,257,27.0,27.0,63,0.00,,,0.00,Wunderground v.1.15,2013-01-18 17:03:00,
2013-01-18 11:04:00,31.9,20.7,30.05,SSW,209,18.0,27.0,63,0.00,,,0.00,Wunderground v.1.15,2013-01-18 17:04:00,
2013-01-18 11:07:00,32.2,20.6,30.05,WSW,243,17.0,27.0,62,0.00,,,0.00,Wunderground v.1.15,2013-01-18 17:07:00,
2013-01-18 11:09:00,32.4,20.8,30.03,South,169,7.0,27.0,62,0.00,,,0.00,Wunderground v.1.15,2013-01-18 17:09:00,
2013-01-18 11:12:00,32.8,21.2,30.03,SSW,206,26.0,26.0,62,0.00,,,0.00,Wunderground v.1.15,2013-01-18 17:12:00,
2013-01-18 11:13:00,32.9,21.3,30.03,South,191,24.0,26.0,62,0.00,,,0.00,Wunderground v.1.15,2013-01-18 17:13:00,
2013-01-18 11:14:00,32.9,21.3,30.03,SW,218,16.0,26.0,62,0.00,,,0.00,Wunderground v.1.15,2013-01-18 17:14:00,
2013-01-18 11:15:00,32.9,21.3,30.03,SSW,209,14.0,26.0,62,0.00,,,0.00,Wunderground v.1.15,2013-01-18 17:15:00,
2013-01-18 11:18:00,33.1,21.5,30.03,SSW,211,21.0,29.0,62,0.00,,,0.00,Wunderground v.1.15,2013-01-18 17:18:00,
2013-01-18 11:20:00,33.2,21.6,30.03,SSW,203,11.0,29.0,62,0.00,,,0.00,Wunderground v.1.15,2013-01-18 17:20:00,
2013-01-18 11:22:00,33.5,21.9,30.03,SSE,164,18.0,19.0,62,0.00,,,0.00,Wunderground v.1.15,2013-01-18 17:22:00,
2013-01-18 11:23:00,33.5,21.9,30.01,SSW,194,14.0,22.0,62,0.00,,,0.00,Wunderground v.1.15,2013-01-18 17:23:00,
2013-01-18 11:25:00,33.8,22.1,30.01,WSW,251,16.0,22.0,62,0.00,,,0.00,Wunderground v.1.15,2013-01-18 17:25:00,
2013-01-18 11:28:00,34.3,22.2,30.01,WSW,245,14.0,22.0,61,0.00,,,0.00,Wunderground v.1.15,2013-01-18 17:28:00,
2013-01-18 11:29:00,34.4,22.3,30.01,WSW,248,23.0,23.0,61,0.00,,,0.00,Wunderground v.1.15,2013-01-18 17:29:00,
2013-01-18 11:32:00,34.9,22.4,30.01,SSW,198,11.0,17.0,60,0.00,,,0.00,Wunderground v.1.15,2013-01-18 17:32:00,
2013-01-18 11:33:00,35.2,23.1,30.01,West,263,9.0,20.0,61,0.00,,,0.00,Wunderground v.1.15,2013-01-18 17:33:00,
2013-01-18 11:34:00,35.2,23.1,30.01,SW,225,11.0,20.0,61,0.00,,,0.00,Wunderground v.1.15,2013-01-18 17:34:00,
2013-01-18 11:37:00,35.8,23.3,30.01,SSW,203,24.0,27.0,60,0.00,,,0.00,Wunderground v.1.15,2013-01-18 17:37:00,
2013-01-18 11:38:00,35.8,23.3,29.99,WSW,251,17.0,27.0,60,0.00,,,0.00,Wunderground v.1.15,2013-01-18 17:38:00,
2013-01-18 11:39:00,35.8,22.9,29.99,SSW,198,16.0,27.0,59,0.00,,,0.00,Wunderground v.1.15,2013-01-18 17:39:00,
2013-01-18 11:40:00,35.8,22.9,29.99,WSW,238,19.0,27.0,59,0.00,,,0.00,Wunderground v.1.15,2013-01-18 17:40:00,
2013-01-18 11:42:00,36.0,23.0,29.99,SW,234,13.0,17.0,59,0.00,,,0.00,Wunderground v.1.15,2013-01-18 17:42:00,
2013-01-18 11:44:00,36.2,23.6,29.99,SW,226,21.0,21.0,60,0.00,,,0.00,Wunderground v.1.15,2013-01-18 17:44:00,
2013-01-18 11:47:00,36.5,23.5,29.99,SW,220,19.0,23.0,59,0.00,,,0.00,Wunderground v.1.15,2013-01-18 17:47:00,
2013-01-18 11:48:00,36.5,23.5,29.99,WSW,245,15.0,23.0,59,0.00,,,0.00,Wunderground v.1.15,2013-01-18 17:48:00,
2013-01-18 11:49:00,36.6,23.6,29.99,WSW,248,18.0,23.0,59,0.00,,,0.00,Wunderground v.1.15,2013-01-18 17:49:00,
2013-01-18 11:50:00,36.8,23.8,29.99,West,269,23.0,23.0,59,0.00,,,0.00,Wunderground v.1.15,2013-01-18 17:50:00,
2013-01-18 11:53:00,37.2,24.2,29.97,WSW,255,23.0,23.0,59,0.00,,,0.00,Wunderground v.1.15,2013-01-18 17:53:00,
2013-01-18 11:54:00,37.3,24.3,29.97,WSW,257,16.0,23.0,59,0.00,,,0.00,Wunderground v.1.15,2013-01-18 17:54:00,
2013-01-18 11:57:00,37.2,23.8,29.97,SW,236,26.0,26.0,58,0.00,,,0.00,Wunderground v.1.15,2013-01-18 17:57:00,
2013-01-18 11:58:00,37.0,23.6,29.97,SW,228,15.0,26.0,58,0.00,,,0.00,Wunderground v.1.15,2013-01-18 17:58:00,
2013-01-18 11:59:00,37.0,24.0,29.97,SW,236,10.0,26.0,59,0.00,,,0.00,Wunderground v.1.15,2013-01-18 17:59:00,
2013-01-18 12:00:00,36.9,23.9,29.97,SW,231,21.0,26.0,59,0.00,,,0.00,Wunderground v.1.15,2013-01-18 18:00:00,
2013-01-18 12:02:00,36.6,23.6,29.97,SW,231,21.0,21.0,59,0.00,,,0.00,Wunderground v.1.15,2013-01-18 18:02:00,
2013-01-18 12:05:00,36.6,24.0,29.97,WSW,257,17.0,30.0,60,0.00,,,0.00,Wunderground v.1.15,2013-01-18 18:05:00,
2013-01-18 12:07:00,36.6,24.0,29.97,SW,232,22.0,30.0,60,0.00,,,0.00,Wunderground v.1.15,2013-01-18 18:07:00,
2013-01-18 12:08:00,36.6,24.0,29.95,SW,226,22.0,31.0,60,0.00,,,0.00,Wunderground v.1.15,2013-01-18 18:08:00,
2013-01-18 12:12:00,36.5,24.3,29.95,WSW,240,34.0,34.0,61,0.00,,,0.00,Wunderground v.1.15,2013-01-18 18:12:00,
2013-01-18 12:13:00,36.5,24.3,29.95,SW,236,20.0,34.0,61,0.00,,,0.00,Wunderground v.1.15,2013-01-18 18:13:00,
2013-01-18 12:15:00,36.5,24.3,29.95,WSW,250,33.0,34.0,61,0.00,,,0.00,Wunderground v.1.15,2013-01-18 18:15:00,
2013-01-18 12:18:00,36.6,24.4,29.95,SW,229,28.0,34.0,61,0.00,,,0.00,Wunderground v.1.15,2013-01-18 18:18:00,
2013-01-18 12:19:00,36.8,24.6,29.95,West,262,19.0,34.0,61,0.00,,,0.00,Wunderground v.1.15,2013-01-18 18:19:00,
2013-01-18 12:23:00,37.0,24.4,29.94,SW,215,25.0,26.0,60,0.00,,,0.00,Wunderground v.1.15,2013-01-18 18:23:00,
2013-01-18 12:24:00,37.2,24.6,29.94,West,259,22.0,26.0,60,0.00,,,0.00,Wunderground v.1.15,2013-01-18 18:24:00,
2013-01-18 12:25:00,37.2,24.6,29.94,WSW,239,32.0,32.0,60,0.00,,,0.00,Wunderground v.1.15,2013-01-18 18:25:00,
2013-01-18 12:28:00,37.2,24.6,29.94,SW,221,24.0,32.0,60,0.00,,,0.00,Wunderground v.1.15,2013-01-18 18:28:00,
2013-01-18 12:29:00,37.0,24.4,29.94,SW,232,15.0,32.0,60,0.00,,,0.00,Wunderground v.1.15,2013-01-18 18:29:00,
2013-01-18 12:32:00,37.2,24.6,29.94,WSW,243,14.0,22.0,60,0.00,,,0.00,Wunderground v.1.15,2013-01-18 18:32:00,
2013-01-18 12:34:00,37.2,25.0,29.94,South,191,19.0,32.0,61,0.00,,,0.00,Wunderground v.1.15,2013-01-18 18:34:00,
2013-01-18 12:37:00,37.3,24.7,29.94,WSW,254,23.0,33.0,60,0.00,,,0.00,Wunderground v.1.15,2013-01-18 18:37:00,
2013-01-18 12:39:00,37.3,24.7,29.93,WSW,248,18.0,36.0,60,0.00,,,0.00,Wunderground v.1.15,2013-01-18 18:39:00,
2013-01-18 12:43:00,37.3,24.7,29.93,SW,236,20.0,24.0,60,0.00,,,0.00,Wunderground v.1.15,2013-01-18 18:43:00,
2013-01-18 12:44:00,37.3,25.1,29.93,WSW,249,25.0,25.0,61,0.00,,,0.00,Wunderground v.1.15,2013-01-18 18:44:00,
2013-01-18 12:45:00,37.3,25.1,29.93,SW,233,20.0,25.0,61,0.00,,,0.00,Wunderground v.1.15,2013-01-18 18:45:00,
2013-01-18 12:48:00,37.3,25.1,29.93,WSW,248,23.0,31.0,61,0.00,,,0.00,Wunderground v.1.15,2013-01-18 18:48:00,
2013-01-18 12:49:00,37.5,25.3,29.93,WSW,243,16.0,31.0,61,0.00,,,0.00,Wunderground v.1.15,2013-01-18 18:49:00,
2013-01-18 12:52:00,37.5,25.3,29.93,SW,236,17.0,25.0,61,0.00,,,0.00,Wunderground v.1.15,2013-01-18 18:52:00,
2013-01-18 12:54:00,37.5,25.3,29.91,SSE,167,20.0,25.0,61,0.00,,,0.00,Wunderground v.1.15,2013-01-18 18:54:00,
2013-01-18 12:57:00,37.5,25.3,29.91,West,272,19.0,25.0,61,0.00,,,0.00,Wunderground v.1.15,2013-01-18 18:57:00,
2013-01-18 12:58:00,37.5,25.3,29.91,WSW,241,21.0,25.0,61,0.00,,,0.00,Wunderground v.1.15,2013-01-18 18:58:00,
2013-01-18 12:59:00,37.5,25.3,29.91,SSW,212,23.0,25.0,61,0.00,,,0.00,Wunderground v.1.15,2013-01-18 18:59:00,
2013-01-18 13:00:00,37.6,25.4,29.91,SW,215,16.0,25.0,61,0.00,,,0.00,Wunderground v.1.15,2013-01-18 19:00:00,
2013-01-18 13:03:00,37.6,25.4,29.91,West,260,24.0,27.0,61,0.00,,,0.00,Wunderground v.1.15,2013-01-18 19:03:00,
2013-01-18 13:04:00,37.8,25.5,29.91,WSW,245,21.0,27.0,61,0.00,,,0.00,Wunderground v.1.15,2013-01-18 19:04:00,
2013-01-18 13:07:00,37.9,25.6,29.91,SW,231,26.0,27.0,61,0.00,,,0.00,Wunderground v.1.15,2013-01-18 19:07:00,
2013-01-18 13:08:00,37.9,25.6,29.90,SW,236,17.0,27.0,61,0.00,,,0.00,Wunderground v.1.15,2013-01-18 19:08:00,
2013-01-18 13:09:00,37.9,25.6,29.90,SW,233,29.0,38.0,61,0.00,,,0.00,Wunderground v.1.15,2013-01-18 19:09:00,
2013-01-18 13:12:00,37.3,25.1,29.90,SW,225,10.0,22.0,61,0.00,,,0.00,Wunderground v.1.15,2013-01-18 19:12:00,
2013-01-18 13:13:00,37.3,25.5,29.90,SW,217,18.0,28.0,62,0.00,,,0.00,Wunderground v.1.15,2013-01-18 19:13:00,
2013-01-18 13:14:00,37.3,25.5,29.90,WSW,243,19.0,28.0,62,0.00,,,0.00,Wunderground v.1.15,2013-01-18 19:14:00,
2013-01-18 13:18:00,37.9,26.0,29.90,South,189,19.0,31.0,62,0.00,,,0.00,Wunderground v.1.15,2013-01-18 19:18:00,
2013-01-18 13:19:00,38.0,26.1,29.90,SW,227,16.0,31.0,62,0.00,,,0.00,Wunderground v.1.15,2013-01-18 19:19:00,
2013-01-18 13:23:00,38.6,26.3,29.89,WSW,238,21.0,29.0,61,0.00,,,0.01,Wunderground v.1.15,2013-01-18 19:23:00,
2013-01-18 13:24:00,38.6,26.3,29.89,WSW,237,14.0,29.0,61,0.00,,,0.01,Wunderground v.1.15,2013-01-18 19:24:00,
2013-01-18 13:29:00,38.5,25.8,29.89,SW,225,32.0,32.0,60,0.00,,,0.01,Wunderground v.1.15,2013-01-18 19:29:00,
2013-01-18 13:32:00,38.5,26.2,29.89,West,267,32.0,32.0,61,0.00,,,0.01,Wunderground v.1.15,2013-01-18 19:32:00,
2013-01-18 13:33:00,38.5,26.2,29.89,WSW,244,33.0,33.0,61,0.00,,,0.01,Wunderground v.1.15,2013-01-18 19:33:00,
2013-01-18 13:35:00,38.3,26.0,29.89,SSW,199,27.0,33.0,61,0.00,,,0.01,Wunderground v.1.15,2013-01-18 19:35:00,
2013-01-18 13:37:00,38.5,26.2,29.89,SSW,201,24.0,33.0,61,0.00,,,0.01,Wunderground v.1.15,2013-01-18 19:37:00,
2013-01-18 13:38:00,38.6,26.3,29.89,WSW,247,35.0,35.0,61,0.00,,,0.01,Wunderground v.1.15,2013-01-18 19:38:00,
2013-01-18 13:42:00,38.6,26.3,29.88,WSW,245,23.0,23.0,61,0.00,,,0.01,Wunderground v.1.15,2013-01-18 19:42:00,
2013-01-18 13:43:00,38.6,26.3,29.88,SW,235,21.0,23.0,61,0.00,,,0.01,Wunderground v.1.15,2013-01-18 19:43:00,
2013-01-18 13:48:00,38.2,26.3,29.88,WSW,240,27.0,29.0,62,0.00,,,0.01,Wunderground v.1.15,2013-01-18 19:48:00,
2013-01-18 13:49:00,38.2,26.3,29.88,WSW,243,32.0,32.0,62,0.00,,,0.01,Wunderground v.1.15,2013-01-18 19:49:00,
2013-01-18 13:52:00,38.0,26.1,29.88,WSW,249,14.0,23.0,62,0.00,,,0.01,Wunderground v.1.15,2013-01-18 19:52:00,
2013-01-18 13:53:00,38.0,26.5,29.87,SW,230,17.0,23.0,63,0.00,,,0.01,Wunderground v.1.15,2013-01-18 19:53:00,
2013-01-18 13:55:00,38.2,26.3,29.87,WSW,239,23.0,28.0,62,0.00,,,0.01,Wunderground v.1.15,2013-01-18 19:55:00,
2013-01-18 13:56:00,38.3,26.4,29.87,SW,227,14.0,28.0,62,0.00,,,0.01,Wunderground v.1.15,2013-01-18 19:56:00,
2013-01-18 13:58:00,38.5,26.6,29.87,WSW,246,24.0,29.0,62,0.00,,,0.01,Wunderground v.1.15,2013-01-18 19:58:00,
2013-01-18 13:59:00,38.5,26.6,29.87,WSW,250,22.0,30.0,62,0.00,,,0.01,Wunderground v.1.15,2013-01-18 19:59:00,
2013-01-18 14:03:00,38.6,26.7,29.87,WSW,248,24.0,25.0,62,0.00,,,0.02,Wunderground v.1.15,2013-01-18 20:03:00,
2013-01-18 14:04:00,38.6,26.7,29.87,WSW,251,20.0,25.0,62,0.00,,,0.02,Wunderground v.1.15,2013-01-18 20:04:00,
2013-01-18 14:05:00,38.6,26.7,29.87,WSW,243,14.0,25.0,62,0.00,,,0.02,Wunderground v.1.15,2013-01-18 20:05:00,
2013-01-18 14:09:00,38.5,26.6,29.86,SW,229,22.0,28.0,62,0.00,,,0.02,Wunderground v.1.15,2013-01-18 20:09:00,
2013-01-18 14:12:00,38.6,27.1,29.86,WSW,248,16.0,22.0,63,0.00,,,0.02,Wunderground v.1.15,2013-01-18 20:12:00,
2013-01-18 14:13:00,38.8,27.3,29.86,WSW,239,26.0,30.0,63,0.00,,,0.02,Wunderground v.1.15,2013-01-18 20:13:00,
2013-01-18 14:14:00,38.9,27.4,29.86,West,266,21.0,30.0,63,0.00,,,0.02,Wunderground v.1.15,2013-01-18 20:14:00,
2013-01-18 14:17:00,39.3,27.4,29.86,WSW,246,21.0,30.0,62,0.00,,,0.02,Wunderground v.1.15,2013-01-18 20:17:00,
2013-01-18 14:18:00,39.3,27.4,29.86,West,259,18.0,30.0,62,0.00,,,0.02,Wunderground v.1.15,2013-01-18 20:18:00,
2013-01-18 14:19:00,39.5,27.5,29.86,WSW,239,23.0,30.0,62,0.00,,,0.02,Wunderground v.1.15,2013-01-18 20:19:00,
2013-01-18 14:23:00,39.8,27.8,29.86,SW,223,25.0,25.0,62,0.00,,,0.02,Wunderground v.1.15,2013-01-18 20:23:00,
2013-01-18 14:25:00,39.9,27.5,29.84,WSW,255,27.0,27.0,61,0.00,,,0.02,Wunderground v.1.15,2013-01-18 20:25:00,
2013-01-18 14:28:00,39.8,27.4,29.84,SW,236,25.0,36.0,61,0.00,,,0.02,Wunderground v.1.15,2013-01-18 20:28:00,
2013-01-18 14:29:00,39.8,27.4,29.84,SSW,208,20.0,36.0,61,0.00,,,0.02,Wunderground v.1.15,2013-01-18 20:29:00,
2013-01-18 14:30:00,39.8,27.4,29.84,SW,226,24.0,36.0,61,0.00,,,0.02,Wunderground v.1.15,2013-01-18 20:30:00,
2013-01-18 14:32:00,39.8,27.4,29.84,WSW,248,21.0,36.0,61,0.00,,,0.02,Wunderground v.1.15,2013-01-18 20:32:00,
2013-01-18 14:34:00,39.9,27.5,29.84,SSW,209,31.0,31.0,61,0.00,,,0.02,Wunderground v.1.15,2013-01-18 20:34:00,
2013-01-18 14:37:00,40.1,27.7,29.84,WSW,238,21.0,31.0,61,0.00,,,0.02,Wunderground v.1.15,2013-01-18 20:37:00,
2013-01-18 14:38:00,40.1,27.7,29.84,SW,226,17.0,31.0,61,0.00,,,0.02,Wunderground v.1.15,2013-01-18 20:38:00,
2013-01-18 14:40:00,40.1,27.7,29.83,SW,235,19.0,31.0,61,0.00,,,0.02,Wunderground v.1.15,2013-01-18 20:40:00,
2013-01-18 14:43:00,40.1,27.7,29.83,SW,231,30.0,30.0,61,0.00,,,0.02,Wunderground v.1.15,2013-01-18 20:43:00,
2013-01-18 14:44:00,39.9,27.5,29.83,SW,214,34.0,34.0,61,0.00,,,0.02,Wunderground v.1.15,2013-01-18 20:44:00,
2013-01-18 14:46:00,39.6,27.2,29.83,WSW,252,14.0,34.0,61,0.00,,,0.02,Wunderground v.1.15,2013-01-18 20:46:00,
2013-01-18 14:48:00,39.6,27.6,29.83,SW,219,17.0,34.0,62,0.00,,,0.02,Wunderground v.1.15,2013-01-18 20:48:00,
2013-01-18 14:49:00,39.6,27.6,29.83,SSW,193,23.0,34.0,62,0.00,,,0.02,Wunderground v.1.15,2013-01-18 20:49:00,
2013-01-18 14:53:00,39.8,27.8,29.83,WSW,241,16.0,21.0,62,0.00,,,0.02,Wunderground v.1.15,2013-01-18 20:53:00,
2013-01-18 14:54:00,39.9,27.9,29.82,SSW,203,13.0,21.0,62,0.00,,,0.02,Wunderground v.1.15,2013-01-18 20:54:00,
2013-01-18 14:55:00,39.9,27.9,29.82,SSW,203,13.0,21.0,62,0.00,,,0.02,Wunderground v.1.15,2013-01-18 20:55:00,
2013-01-18 14:59:00,39.9,27.9,29.82,SW,229,24.0,29.0,62,0.00,,,0.02,Wunderground v.1.15,2013-01-18 20:59:00,
2013-01-18 15:02:00,40.1,28.1,29.82,SSW,206,16.0,21.0,62,0.00,,,0.02,Wunderground v.1.15,2013-01-18 21:02:00,
2013-01-18 15:03:00,40.1,28.1,29.82,WSW,238,20.0,21.0,62,0.00,,,0.03,Wunderground v.1.15,2013-01-18 21:03:00,
2013-01-18 15:04:00,40.2,28.2,29.82,SSW,209,13.0,24.0,62,0.00,,,0.03,Wunderground v.1.15,2013-01-18 21:04:00,
2013-01-18 15:07:00,40.2,28.2,29.82,SW,235,23.0,24.0,62,0.00,,,0.03,Wunderground v.1.15,2013-01-18 21:07:00,
2013-01-18 15:08:00,40.2,28.2,29.82,West,269,20.0,24.0,62,0.00,,,0.03,Wunderground v.1.15,2013-01-18 21:08:00,
2013-01-18 15:10:00,40.3,28.3,29.83,SW,229,18.0,24.0,62,0.00,,,0.03,Wunderground v.1.15,2013-01-18 21:10:00,
2013-01-18 15:12:00,40.5,28.5,29.83,SW,236,21.0,23.0,62,0.00,,,0.03,Wunderground v.1.15,2013-01-18 21:12:00,
2013-01-18 15:13:00,40.5,28.1,29.83,SW,231,20.0,26.0,61,0.00,,,0.03,Wunderground v.1.15,2013-01-18 21:13:00,
2013-01-18 15:15:00,40.3,28.3,29.83,SW,224,22.0,27.0,62,0.00,,,0.03,Wunderground v.1.15,2013-01-18 21:15:00,
2013-01-18 15:18:00,40.3,28.3,29.83,WSW,251,19.0,27.0,62,0.00,,,0.03,Wunderground v.1.15,2013-01-18 21:18:00,
2013-01-18 15:19:00,40.3,28.3,29.83,WSW,247,28.0,31.0,62,0.00,,,0.03,Wunderground v.1.15,2013-01-18 21:19:00,
2013-01-18 15:23:00,40.3,28.3,29.83,WSW,249,32.0,32.0,62,0.00,,,0.03,Wunderground v.1.15,2013-01-18 21:23:00,
2013-01-18 15:24:00,40.3,28.3,29.81,West,262,24.0,36.0,62,0.00,,,0.03,Wunderground v.1.15,2013-01-18 21:24:00,
2013-01-18 15:25:00,40.3,28.3,29.81,WSW,250,22.0,36.0,62,0.00,,,0.03,Wunderground v.1.15,2013-01-18 21:25:00,
2013-01-18 15:29:00,40.2,28.2,29.81,WSW,246,23.0,36.0,62,0.00,,,0.03,Wunderground v.1.15,2013-01-18 21:29:00,
2013-01-18 15:33:00,40.1,28.1,29.81,WSW,242,25.0,25.0,62,0.00,,,0.03,Wunderground v.1.15,2013-01-18 21:33:00,
2013-01-18 15:34:00,40.1,28.1,29.81,WSW,247,14.0,32.0,62,0.00,,,0.03,Wunderground v.1.15,2013-01-18 21:34:00,
2013-01-18 15:35:00,40.1,28.1,29.81,WSW,246,24.0,32.0,62,0.00,,,0.03,Wunderground v.1.15,2013-01-18 21:35:00,
2013-01-18 15:39:00,39.9,28.3,29.82,WSW,246,22.0,32.0,63,0.00,,,0.03,Wunderground v.1.15,2013-01-18 21:39:00,
2013-01-18 15:42:00,39.9,28.3,29.82,WSW,255,21.0,22.0,63,0.00,,,0.03,Wunderground v.1.15,2013-01-18 21:42:00,
2013-01-18 15:43:00,39.9,28.3,29.82,SW,227,26.0,26.0,63,0.00,,,0.03,Wunderground v.1.15,2013-01-18 21:43:00,
2013-01-18 15:44:00,39.9,28.3,29.82,WSW,240,21.0,26.0,63,0.00,,,0.03,Wunderground v.1.15,2013-01-18 21:44:00,
2013-01-18 15:45:00,39.8,28.2,29.82,WSW,240,14.0,26.0,63,0.00,,,0.03,Wunderground v.1.15,2013-01-18 21:45:00,
2013-01-18 15:47:00,39.8,28.2,29.82,SW,221,10.0,27.0,63,0.00,,,0.03,Wunderground v.1.15,2013-01-18 21:47:00,
2013-01-18 15:48:00,39.8,28.2,29.82,West,262,20.0,27.0,63,0.00,,,0.03,Wunderground v.1.15,2013-01-18 21:48:00,
2013-01-18 15:50:00,39.8,28.2,29.82,WSW,240,13.0,27.0,63,0.00,,,0.03,Wunderground v.1.15,2013-01-18 21:50:00,
2013-01-18 15:53:00,39.6,28.4,29.82,WSW,248,18.0,20.0,64,0.00,,,0.03,Wunderground v.1.15,2013-01-18 21:53:00,
2013-01-18 15:54:00,39.6,28.4,29.81,WSW,243,27.0,27.0,64,0.00,,,0.03,Wunderground v.1.15,2013-01-18 21:54:00,
2013-01-18 15:58:00,39.5,28.3,29.81,WSW,252,20.0,27.0,64,0.00,,,0.03,Wunderground v.1.15,2013-01-18 21:58:00,
2013-01-18 15:59:00,39.3,28.5,29.81,SW,234,20.0,27.0,65,0.00,,,0.03,Wunderground v.1.15,2013-01-18 21:59:00,
2013-01-18 16:02:00,39.3,28.5,29.81,WSW,243,25.0,25.0,65,0.00,,,0.03,Wunderground v.1.15,2013-01-18 22:02:00,
2013-01-18 16:03:00,39.3,28.5,29.81,WSW,247,21.0,25.0,65,0.00,,,0.03,Wunderground v.1.15,2013-01-18 22:03:00,
2013-01-18 16:07:00,39.3,28.5,29.81,SSW,198,21.0,25.0,65,0.00,,,0.03,Wunderground v.1.15,2013-01-18 22:07:00,
2013-01-18 16:09:00,39.3,28.5,29.81,SW,227,15.0,31.0,65,0.00,,,0.03,Wunderground v.1.15,2013-01-18 22:09:00,
2013-01-18 16:13:00,39.2,28.4,29.81,SW,219,28.0,28.0,65,0.00,,,0.03,Wunderground v.1.15,2013-01-18 22:13:00,
2013-01-18 16:14:00,39.2,28.4,29.81,WSW,238,22.0,28.0,65,0.00,,,0.03,Wunderground v.1.15,2013-01-18 22:14:00,
2013-01-18 16:15:00,39.2,28.4,29.81,WSW,252,23.0,28.0,65,0.00,,,0.03,Wunderground v.1.15,2013-01-18 22:15:00,
2013-01-18 16:19:00,38.9,28.5,29.81,WSW,254,23.0,28.0,66,0.00,,,0.03,Wunderground v.1.15,2013-01-18 22:19:00,
2013-01-18 16:20:00,38.9,28.5,29.81,WSW,255,20.0,28.0,66,0.00,,,0.03,Wunderground v.1.15,2013-01-18 22:20:00,
2013-01-18 16:22:00,38.9,28.5,29.81,SW,224,34.0,34.0,66,0.00,,,0.03,Wunderground v.1.15,2013-01-18 22:22:00,
2013-01-18 16:24:00,39.1,28.7,29.81,SW,236,19.0,19.0,66,0.00,,,0.03,Wunderground v.1.15,2013-01-18 22:24:00,
2013-01-18 16:27:00,39.1,28.7,29.81,WSW,253,26.0,26.0,66,0.00,,,0.03,Wunderground v.1.15,2013-01-18 22:27:00,
2013-01-18 16:28:00,39.1,28.7,29.81,WSW,241,18.0,26.0,66,0.00,,,0.03,Wunderground v.1.15,2013-01-18 22:28:00,
2013-01-18 16:30:00,39.1,28.7,29.81,West,259,20.0,30.0,66,0.00,,,0.03,Wunderground v.1.15,2013-01-18 22:30:00,
2013-01-18 16:31:00,39.1,28.7,29.81,WSW,242,19.0,30.0,66,0.00,,,0.03,Wunderground v.1.15,2013-01-18 22:31:00,
2013-01-18 16:33:00,38.9,28.5,29.81,SW,228,19.0,20.0,66,0.00,,,0.03,Wunderground v.1.15,2013-01-18 22:33:00,
2013-01-18 16:35:00,38.9,28.5,29.81,WSW,238,15.0,26.0,66,0.00,,,0.03,Wunderground v.1.15,2013-01-18 22:35:00,
2013-01-18 16:38:00,38.9,28.5,29.81,SW,224,17.0,26.0,66,0.00,,,0.03,Wunderground v.1.15,2013-01-18 22:38:00,
2013-01-18 16:39:00,38.8,28.8,29.81,WSW,243,22.0,26.0,67,0.00,,,0.03,Wunderground v.1.15,2013-01-18 22:39:00,
2013-01-18 16:43:00,38.6,28.9,29.81,SW,216,15.0,18.0,68,0.00,,,0.03,Wunderground v.1.15,2013-01-18 22:43:00,
2013-01-18 16:44:00,38.5,28.9,29.81,SW,236,15.0,18.0,68,0.00,,,0.03,Wunderground v.1.15,2013-01-18 22:44:00,
2013-01-18 16:48:00,38.3,28.7,29.81,WSW,249,26.0,26.0,68,0.00,,,0.03,Wunderground v.1.15,2013-01-18 22:48:00,
2013-01-18 16:49:00,38.3,28.7,29.81,South,177,15.0,29.0,68,0.00,,,0.03,Wunderground v.1.15,2013-01-18 22:49:00,
2013-01-18 16:50:00,38.3,28.7,29.81,WSW,243,22.0,29.0,68,0.00,,,0.03,Wunderground v.1.15,2013-01-18 22:50:00,
2013-01-18 16:52:00,38.3,29.0,29.81,WSW,240,17.0,29.0,69,0.00,,,0.03,Wunderground v.1.15,2013-01-18 22:52:00,
2013-01-18 16:54:00,38.3,29.0,29.81,WSW,248,13.0,18.0,69,0.00,,,0.03,Wunderground v.1.15,2013-01-18 22:54:00,
2013-01-18 16:55:00,38.3,29.0,29.81,West,265,15.0,25.0,69,0.00,,,0.03,Wunderground v.1.15,2013-01-18 22:55:00,
2013-01-18 16:58:00,38.3,29.0,29.81,WSW,250,19.0,26.0,69,0.00,,,0.03,Wunderground v.1.15,2013-01-18 22:58:00,
2013-01-18 16:59:00,38.3,29.0,29.81,WSW,257,23.0,26.0,69,0.00,,,0.03,Wunderground v.1.15,2013-01-18 22:59:00,
2013-01-18 17:02:00,38.3,29.0,29.81,WSW,246,16.0,18.0,69,0.00,,,0.03,Wunderground v.1.15,2013-01-18 23:02:00,
2013-01-18 17:03:00,38.3,29.0,29.81,SW,233,16.0,27.0,69,0.00,,,0.03,Wunderground v.1.15,2013-01-18 23:03:00,
2013-01-18 17:04:00,38.3,29.0,29.81,West,262,14.0,27.0,69,0.00,,,0.03,Wunderground v.1.15,2013-01-18 23:04:00,
2013-01-18 17:08:00,38.3,29.0,29.81,WSW,243,13.0,27.0,69,0.00,,,0.03,Wunderground v.1.15,2013-01-18 23:08:00,
2013-01-18 17:09:00,38.3,29.0,29.81,WSW,238,22.0,27.0,69,0.00,,,0.03,Wunderground v.1.15,2013-01-18 23:09:00,
2013-01-18 17:10:00,38.3,29.0,29.81,WSW,250,28.0,29.0,69,0.00,,,0.03,Wunderground v.1.15,2013-01-18 23:10:00,
2013-01-18 17:11:00,38.3,29.0,29.81,SW,230,21.0,29.0,69,0.00,,,0.03,Wunderground v.1.15,2013-01-18 23:11:00,
2013-01-18 17:14:00,38.3,29.0,29.81,WSW,250,14.0,23.0,69,0.00,,,0.03,Wunderground v.1.15,2013-01-18 23:14:00,
2013-01-18 17:15:00,38.2,28.9,29.81,WSW,252,14.0,23.0,69,0.00,,,0.03,Wunderground v.1.15,2013-01-18 23:15:00,
2013-01-18 17:17:00,38.2,29.3,29.81,WSW,244,20.0,23.0,70,0.00,,,0.03,Wunderground v.1.15,2013-01-18 23:17:00,
2013-01-18 17:18:00,38.2,29.3,29.81,WSW,241,14.0,23.0,70,0.00,,,0.03,Wunderground v.1.15,2013-01-18 23:18:00,
2013-01-18 17:19:00,38.2,29.3,29.81,SW,229,24.0,24.0,70,0.00,,,0.03,Wunderground v.1.15,2013-01-18 23:19:00,
2013-01-18 17:22:00,38.2,29.3,29.81,SW,233,13.0,18.0,70,0.00,,,0.03,Wunderground v.1.15,2013-01-18 23:22:00,
2013-01-18 17:23:00,38.2,29.3,29.81,WSW,239,11.0,20.0,70,0.00,,,0.03,Wunderground v.1.15,2013-01-18 23:23:00,
2013-01-18 17:24:00,38.2,29.3,29.81,SW,236,26.0,26.0,70,0.00,,,0.03,Wunderground v.1.15,2013-01-18 23:24:00,
2013-01-18 17:27:00,38.0,29.1,29.81,WSW,248,11.0,26.0,70,0.00,,,0.03,Wunderground v.1.15,2013-01-18 23:27:00,
2013-01-18 17:28:00,38.2,29.3,29.81,WSW,247,17.0,26.0,70,0.00,,,0.03,Wunderground v.1.15,2013-01-18 23:28:00,
2013-01-18 17:30:00,38.0,29.1,29.81,SW,223,13.0,26.0,70,0.00,,,0.03,Wunderground v.1.15,2013-01-18 23:30:00,
2013-01-18 17:33:00,37.9,29.0,29.81,SW,232,17.0,17.0,70,0.00,,,0.03,Wunderground v.1.15,2013-01-18 23:33:00,
2013-01-18 17:34:00,37.9,29.0,29.81,SW,226,17.0,17.0,70,0.00,,,0.03,Wunderground v.1.15,2013-01-18 23:34:00,
2013-01-18 17:35:00,37.9,29.0,29.81,WSW,245,19.0,22.0,70,0.00,,,0.03,Wunderground v.1.15,2013-01-18 23:35:00,
2013-01-18 17:39:00,38.0,29.1,29.81,West,267,20.0,22.0,70,0.00,,,0.03,Wunderground v.1.15,2013-01-18 23:39:00,
2013-01-18 17:40:00,38.0,29.1,29.81,SW,224,16.0,22.0,70,0.00,,,0.03,Wunderground v.1.15,2013-01-18 23:40:00,
2013-01-18 17:42:00,38.2,29.3,29.81,WSW,252,23.0,23.0,70,0.00,,,0.03,Wunderground v.1.15,2013-01-18 23:42:00,
2013-01-18 17:45:00,38.2,29.3,29.81,WSW,243,26.0,26.0,70,0.00,,,0.03,Wunderground v.1.15,2013-01-18 23:45:00,
2013-01-18 17:48:00,38.2,29.3,29.81,West,269,12.0,26.0,70,0.00,,,0.03,Wunderground v.1.15,2013-01-18 23:48:00,
2013-01-18 17:50:00,38.2,29.3,29.81,WSW,252,21.0,27.0,70,0.00,,,0.03,Wunderground v.1.15,2013-01-18 23:50:00,
2013-01-18 17:52:00,38.3,29.4,29.81,WSW,238,17.0,20.0,70,0.00,,,0.03,Wunderground v.1.15,2013-01-18 23:52:00,
2013-01-18 17:54:00,38.3,29.4,29.81,SW,231,17.0,23.0,70,0.00,,,0.03,Wunderground v.1.15,2013-01-18 23:54:00,
2013-01-18 17:57:00,38.3,29.4,29.81,WSW,251,25.0,25.0,70,0.00,,,0.03,Wunderground v.1.15,2013-01-18 23:57:00,
2013-01-18 17:59:00,38.3,29.4,29.81,WSW,244,14.0,28.0,70,0.00,,,0.03,Wunderground v.1.15,2013-01-18 23:59:00,
2013-01-18 18:02:00,38.2,29.3,29.81,SW,217,15.0,18.0,70,0.00,,,0.03,Wunderground v.1.15,2013-01-19 00:02:00,
2013-01-18 18:03:00,38.2,29.3,29.81,WSW,248,17.0,20.0,70,0.00,,,0.03,Wunderground v.1.15,2013-01-19 00:03:00,
2013-01-18 18:04:00,38.2,29.3,29.81,WSW,245,14.0,20.0,70,0.00,,,0.03,Wunderground v.1.15,2013-01-19 00:04:00,
2013-01-18 18:08:00,38.3,29.4,29.81,WSW,253,20.0,20.0,70,0.00,,,0.03,Wunderground v.1.15,2013-01-19 00:08:00,
2013-01-18 18:09:00,38.2,29.3,29.81,SW,214,12.0,20.0,70,0.00,,,0.03,Wunderground v.1.15,2013-01-19 00:09:00,
2013-01-18 18:13:00,38.2,29.3,29.81,SW,223,21.0,21.0,70,0.00,,,0.03,Wunderground v.1.15,2013-01-19 00:13:00,
2013-01-18 18:14:00,38.2,29.3,29.81,SW,214,15.0,21.0,70,0.00,,,0.03,Wunderground v.1.15,2013-01-19 00:14:00,
2013-01-18 18:15:00,38.2,29.3,29.81,WSW,256,14.0,21.0,70,0.00,,,0.03,Wunderground v.1.15,2013-01-19 00:15:00,
2013-01-18 18:19:00,38.2,29.3,29.81,SW,224,17.0,24.0,70,0.00,,,0.03,Wunderground v.1.15,2013-01-19 00:19:00,
2013-01-18 18:22:00,38.2,29.6,29.81,SSW,213,18.0,22.0,71,0.00,,,0.03,Wunderground v.1.15,2013-01-19 00:22:00,
2013-01-18 18:24:00,38.2,29.6,29.80,SW,221,17.0,25.0,71,0.00,,,0.03,Wunderground v.1.15,2013-01-19 00:24:00,
2013-01-18 18:25:00,38.2,29.6,29.80,WSW,245,18.0,25.0,71,0.00,,,0.03,Wunderground v.1.15,2013-01-19 00:25:00,
2013-01-18 18:27:00,38.2,29.3,29.80,WSW,238,15.0,25.0,70,0.00,,,0.03,Wunderground v.1.15,2013-01-19 00:27:00,
2013-01-18 18:29:00,38.2,29.6,29.80,West,281,14.0,25.0,71,0.00,,,0.03,Wunderground v.1.15,2013-01-19 00:29:00,
2013-01-18 18:32:00,38.2,29.6,29.80,WSW,252,17.0,18.0,71,0.00,,,0.03,Wunderground v.1.15,2013-01-19 00:32:00,
2013-01-18 18:34:00,38.2,29.3,29.80,SW,218,19.0,19.0,70,0.00,,,0.03,Wunderground v.1.15,2013-01-19 00:34:00,
2013-01-18 18:37:00,38.2,29.3,29.80,West,259,15.0,23.0,70,0.00,,,0.03,Wunderground v.1.15,2013-01-19 00:37:00,
2013-01-18 18:38:00,38.2,29.3,29.80,WSW,249,24.0,24.0,70,0.00,,,0.03,Wunderground v.1.15,2013-01-19 00:38:00,
2013-01-18 18:40:00,38.0,29.4,29.79,WSW,241,16.0,24.0,71,0.00,,,0.03,Wunderground v.1.15,2013-01-19 00:40:00,
2013-01-18 18:42:00,38.0,29.4,29.79,WSW,251,13.0,17.0,71,0.00,,,0.03,Wunderground v.1.15,2013-01-19 00:42:00,
2013-01-18 18:43:00,38.0,29.4,29.79,WSW,255,12.0,23.0,71,0.00,,,0.03,Wunderground v.1.15,2013-01-19 00:43:00,
2013-01-18 18:45:00,38.0,29.4,29.79,SW,231,13.0,23.0,71,0.00,,,0.03,Wunderground v.1.15,2013-01-19 00:45:00,
2013-01-18 18:48:00,37.9,29.3,29.79,SW,221,19.0,23.0,71,0.00,,,0.03,Wunderground v.1.15,2013-01-19 00:48:00,
2013-01-18 18:49:00,37.9,29.3,29.79,SW,229,17.0,23.0,71,0.00,,,0.03,Wunderground v.1.15,2013-01-19 00:49:00,
2013-01-18 18:50:00,38.0,29.4,29.79,SW,226,16.0,23.0,71,0.00,,,0.03,Wunderground v.1.15,2013-01-19 00:50:00,
2013-01-18 18:53:00,38.0,29.4,29.79,SW,220,16.0,18.0,71,0.00,,,0.03,Wunderground v.1.15,2013-01-19 00:53:00,
2013-01-18 18:54:00,38.0,29.4,29.79,SW,228,16.0,25.0,71,0.00,,,0.03,Wunderground v.1.15,2013-01-19 00:54:00,
2013-01-18 18:58:00,37.9,29.3,29.79,SW,216,11.0,25.0,71,0.00,,,0.03,Wunderground v.1.15,2013-01-19 00:58:00,
2013-01-18 18:59:00,37.9,29.3,29.79,WSW,243,14.0,25.0,71,0.00,,,0.03,Wunderground v.1.15,2013-01-19 00:59:00,
2013-01-18 19:02:00,37.9,29.7,29.79,West,274,15.0,17.0,72,0.00,,,0.03,Wunderground v.1.15,2013-01-19 01:02:00,
2013-01-18 19:03:00,37.9,29.3,29.79,West,259,16.0,27.0,71,0.00,,,0.03,Wunderground v.1.15,2013-01-19 01:03:00,
2013-01-18 19:04:00,37.9,29.3,29.79,WSW,238,14.0,27.0,71,0.00,,,0.03,Wunderground v.1.15,2013-01-19 01:04:00,
2013-01-18 19:07:00,37.9,29.3,29.79,WSW,249,14.0,27.0,71,0.00,,,0.03,Wunderground v.1.15,2013-01-19 01:07:00,
2013-01-18 19:09:00,37.9,29.7,29.80,SW,224,14.0,27.0,72,0.00,,,0.03,Wunderground v.1.15,2013-01-19 01:09:00,
2013-01-18 19:13:00,37.8,29.6,29.80,WSW,241,15.0,17.0,72,0.00,,,0.03,Wunderground v.1.15,2013-01-19 01:13:00,
2013-01-18 19:14:00,37.8,29.6,29.80,WSW,248,19.0,19.0,72,0.00,,,0.03,Wunderground v.1.15,2013-01-19 01:14:00,
2013-01-18 19:15:00,37.8,29.6,29.80,WSW,238,13.0,19.0,72,0.00,,,0.03,Wunderground v.1.15,2013-01-19 01:15:00,
2013-01-18 19:18:00,37.9,29.7,29.80,West,265,20.0,20.0,72,0.00,,,0.03,Wunderground v.1.15,2013-01-19 01:18:00,
2013-01-18 19:19:00,37.9,29.7,29.80,SW,229,12.0,21.0,72,0.00,,,0.03,Wunderground v.1.15,2013-01-19 01:19:00,
2013-01-18 19:22:00,37.9,29.7,29.80,WSW,248,13.0,16.0,72,0.00,,,0.03,Wunderground v.1.15,2013-01-19 01:22:00,
2013-01-18 19:23:00,37.9,29.7,29.80,WSW,250,14.0,23.0,72,0.00,,,0.03,Wunderground v.1.15,2013-01-19 01:23:00,
2013-01-18 19:24:00,37.9,29.3,29.79,SW,236,10.0,23.0,71,0.00,,,0.03,Wunderground v.1.15,2013-01-19 01:24:00,
2013-01-18 19:27:00,37.9,29.7,29.79,SW,230,19.0,23.0,72,0.00,,,0.03,Wunderground v.1.15,2013-01-19 01:27:00,
2013-01-18 19:28:00,37.9,29.7,29.79,West,259,16.0,23.0,72,0.00,,,0.03,Wunderground v.1.15,2013-01-19 01:28:00,
2013-01-18 19:29:00,37.9,29.7,29.79,WSW,248,18.0,23.0,72,0.00,,,0.03,Wunderground v.1.15,2013-01-19 01:29:00,
2013-01-18 19:30:00,37.9,29.7,29.79,West,263,19.0,23.0,72,0.00,,,0.03,Wunderground v.1.15,2013-01-19 01:30:00,
2013-01-18 19:32:00,37.9,29.7,29.79,WSW,248,25.0,25.0,72,0.00,,,0.03,Wunderground v.1.15,2013-01-19 01:32:00,
2013-01-18 19:33:00,37.9,29.7,29.79,WSW,238,20.0,25.0,72,0.00,,,0.03,Wunderground v.1.15,2013-01-19 01:33:00,
2013-01-18 19:35:00,38.0,29.8,29.79,WSW,243,21.0,25.0,72,0.00,,,0.03,Wunderground v.1.15,2013-01-19 01:35:00,
2013-01-18 19:37:00,38.0,29.4,29.79,WSW,251,10.0,25.0,71,0.00,,,0.03,Wunderground v.1.15,2013-01-19 01:37:00,
2013-01-18 19:38:00,38.0,29.4,29.79,WSW,252,13.0,25.0,71,0.00,,,0.03,Wunderground v.1.15,2013-01-19 01:38:00,
2013-01-18 19:42:00,37.9,29.3,29.79,SW,216,12.0,16.0,71,0.00,,,0.03,Wunderground v.1.15,2013-01-19 01:42:00,
2013-01-18 19:43:00,37.9,29.3,29.79,WSW,248,19.0,19.0,71,0.00,,,0.03,Wunderground v.1.15,2013-01-19 01:43:00,
2013-01-18 19:44:00,38.0,29.4,29.79,WSW,242,11.0,19.0,71,0.00,,,0.03,Wunderground v.1.15,2013-01-19 01:44:00,
2013-01-18 19:47:00,38.0,29.4,29.79,SW,227,18.0,19.0,71,0.00,,,0.03,Wunderground v.1.15,2013-01-19 01:47:00,
2013-01-18 19:49:00,38.0,29.4,29.79,West,261,15.0,22.0,71,0.00,,,0.03,Wunderground v.1.15,2013-01-19 01:49:00,
2013-01-18 19:50:00,38.0,29.4,29.79,WSW,240,13.0,22.0,71,0.00,,,0.03,Wunderground v.1.15,2013-01-19 01:50:00,
2013-01-18 19:52:00,38.0,29.4,29.79,SW,218,10.0,16.0,71,0.00,,,0.03,Wunderground v.1.15,2013-01-19 01:52:00,
2013-01-18 19:53:00,38.0,29.4,29.79,WSW,255,11.0,16.0,71,0.00,,,0.03,Wunderground v.1.15,2013-01-19 01:53:00,
2013-01-18 19:54:00,38.0,29.4,29.79,SW,236,17.0,18.0,71,0.00,,,0.03,Wunderground v.1.15,2013-01-19 01:54:00,
2013-01-18 19:58:00,37.9,29.3,29.79,WSW,255,15.0,18.0,71,0.00,,,0.03,Wunderground v.1.15,2013-01-19 01:58:00,
2013-01-18 19:59:00,37.9,29.3,29.79,WSW,240,14.0,18.0,71,0.00,,,0.03,Wunderground v.1.15,2013-01-19 01:59:00,
2013-01-18 20:03:00,37.9,29.3,29.79,WSW,242,13.0,14.0,71,0.00,,,0.03,Wunderground v.1.15,2013-01-19 02:03:00,
2013-01-18 20:04:00,37.9,29.3,29.79,WSW,239,22.0,22.0,71,0.00,,,0.03,Wunderground v.1.15,2013-01-19 02:04:00,
2013-01-18 20:07:00,37.9,29.3,29.79,WSW,245,15.0,22.0,71,0.00,,,0.03,Wunderground v.1.15,2013-01-19 02:07:00,
2013-01-18 20:08:00,37.9,29.3,29.79,WSW,247,14.0,22.0,71,0.00,,,0.03,Wunderground v.1.15,2013-01-19 02:08:00,
2013-01-18 20:09:00,37.8,29.2,29.79,West,266,12.0,22.0,71,0.00,,,0.03,Wunderground v.1.15,2013-01-19 02:09:00,
2013-01-18 20:10:00,37.8,29.2,29.79,WSW,238,13.0,22.0,71,0.00,,,0.03,Wunderground v.1.15,2013-01-19 02:10:00,
2013-01-18 20:13:00,37.9,29.3,29.79,WSW,240,9.0,16.0,71,0.00,,,0.03,Wunderground v.1.15,2013-01-19 02:13:00,
2013-01-18 20:15:00,37.8,29.2,29.79,West,270,19.0,19.0,71,0.00,,,0.03,Wunderground v.1.15,2013-01-19 02:15:00,
2013-01-18 20:19:00,37.9,29.3,29.79,WSW,252,16.0,19.0,71,0.00,,,0.03,Wunderground v.1.15,2013-01-19 02:19:00,
2013-01-18 20:20:00,37.9,29.3,29.79,WSW,250,15.0,23.0,71,0.00,,,0.03,Wunderground v.1.15,2013-01-19 02:20:00,
2013-01-18 20:23:00,37.9,29.3,29.79,WSW,256,24.0,24.0,71,0.00,,,0.03,Wunderground v.1.15,2013-01-19 02:23:00,
2013-01-18 20:24:00,37.9,29.3,29.78,SW,230,17.0,24.0,71,0.00,,,0.03,Wunderground v.1.15,2013-01-19 02:24:00,
2013-01-18 20:27:00,37.9,29.3,29.78,SW,226,16.0,24.0,71,0.00,,,0.03,Wunderground v.1.15,2013-01-19 02:27:00,
2013-01-18 20:29:00,37.9,29.3,29.78,WSW,241,13.0,24.0,71,0.00,,,0.03,Wunderground v.1.15,2013-01-19 02:29:00,
2013-01-18 20:33:00,37.6,29.0,29.78,SW,230,12.0,16.0,71,0.00,,,0.03,Wunderground v.1.15,2013-01-19 02:33:00,
2013-01-18 20:34:00,37.6,29.4,29.78,WSW,240,21.0,21.0,72,0.00,,,0.03,Wunderground v.1.15,2013-01-19 02:34:00,
2013-01-18 20:36:00,37.6,29.4,29.78,WSW,248,14.0,21.0,72,0.00,,,0.03,Wunderground v.1.15,2013-01-19 02:36:00,
2013-01-18 20:39:00,37.8,29.2,29.77,WSW,249,13.0,21.0,71,0.00,,,0.03,Wunderground v.1.15,2013-01-19 02:39:00,
2013-01-18 20:42:00,37.9,29.3,29.77,WSW,255,7.0,14.0,71,0.00,,,0.03,Wunderground v.1.15,2013-01-19 02:42:00,
2013-01-18 20:43:00,37.9,29.3,29.77,WSW,242,12.0,14.0,71,0.00,,,0.03,Wunderground v.1.15,2013-01-19 02:43:00,
2013-01-18 20:44:00,37.8,29.2,29.77,WSW,241,18.0,24.0,71,0.00,,,0.03,Wunderground v.1.15,2013-01-19 02:44:00,
2013-01-18 20:45:00,37.9,29.3,29.77,West,269,17.0,24.0,71,0.00,,,0.03,Wunderground v.1.15,2013-01-19 02:45:00,
2013-01-18 20:47:00,38.0,29.1,29.77,West,264,10.0,24.0,70,0.00,,,0.03,Wunderground v.1.15,2013-01-19 02:47:00,
2013-01-18 20:49:00,37.9,29.3,29.77,WSW,249,13.0,24.0,71,0.00,,,0.03,Wunderground v.1.15,2013-01-19 02:49:00,
2013-01-18 20:50:00,37.9,29.0,29.77,SW,221,10.0,24.0,70,0.00,,,0.03,Wunderground v.1.15,2013-01-19 02:50:00,
2013-01-18 20:53:00,37.9,29.3,29.77,WSW,243,12.0,16.0,71,0.00,,,0.03,Wunderground v.1.15,2013-01-19 02:53:00,
2013-01-18 20:54:00,37.9,29.3,29.77,WSW,249,9.0,16.0,71,0.00,,,0.03,Wunderground v.1.15,2013-01-19 02:54:00,
2013-01-18 20:55:00,37.9,29.3,29.77,West,272,13.0,16.0,71,0.00,,,0.03,Wunderground v.1.15,2013-01-19 02:55:00,
2013-01-18 20:58:00,37.8,29.2,29.77,West,263,14.0,17.0,71,0.00,,,0.03,Wunderground v.1.15,2013-01-19 02:58:00,
2013-01-18 20:59:00,37.8,29.2,29.77,WSW,240,17.0,17.0,71,0.00,,,0.03,Wunderground v.1.15,2013-01-19 02:59:00,
2013-01-18 21:02:00,37.8,29.2,29.77,WSW,257,8.0,13.0,71,0.00,,,0.03,Wunderground v.1.15,2013-01-19 03:02:00,
2013-01-18 21:04:00,37.8,29.2,29.77,SW,217,10.0,17.0,71,0.00,,,0.03,Wunderground v.1.15,2013-01-19 03:04:00,
2013-01-18 21:07:00,37.8,29.2,29.77,SW,236,9.0,17.0,71,0.00,,,0.03,Wunderground v.1.15,2013-01-19 03:07:00,
2013-01-18 21:08:00,37.8,29.2,29.77,WSW,243,13.0,17.0,71,0.00,,,0.03,Wunderground v.1.15,2013-01-19 03:08:00,
2013-01-18 21:09:00,37.8,29.2,29.77,SW,233,15.0,19.0,71,0.00,,,0.03,Wunderground v.1.15,2013-01-19 03:09:00,
2013-01-18 21:10:00,37.8,29.2,29.77,WSW,256,14.0,19.0,71,0.00,,,0.03,Wunderground v.1.15,2013-01-19 03:10:00,
2013-01-18 21:13:00,37.6,29.0,29.77,West,264,20.0,20.0,71,0.00,,,0.03,Wunderground v.1.15,2013-01-19 03:13:00,
2013-01-18 21:14:00,37.6,29.0,29.77,WSW,252,16.0,20.0,71,0.00,,,0.03,Wunderground v.1.15,2013-01-19 03:14:00,
2013-01-18 21:15:00,37.8,29.2,29.77,WSW,248,18.0,20.0,71,0.00,,,0.03,Wunderground v.1.15,2013-01-19 03:15:00,
2013-01-18 21:19:00,37.8,29.2,29.77,WSW,251,12.0,20.0,71,0.00,,,0.03,Wunderground v.1.15,2013-01-19 03:19:00,
2013-01-18 21:22:00,37.9,29.3,29.77,WSW,252,16.0,20.0,71,0.00,,,0.03,Wunderground v.1.15,2013-01-19 03:22:00,
2013-01-18 21:23:00,37.9,29.3,29.77,West,259,11.0,14.0,71,0.00,,,0.03,Wunderground v.1.15,2013-01-19 03:23:00,
2013-01-18 21:24:00,37.8,29.2,29.77,WSW,244,17.0,17.0,71,0.00,,,0.03,Wunderground v.1.15,2013-01-19 03:24:00,
2013-01-18 21:28:00,37.6,29.0,29.77,WSW,250,14.0,17.0,71,0.00,,,0.03,Wunderground v.1.15,2013-01-19 03:28:00,
2013-01-18 21:29:00,37.8,29.2,29.77,SW,223,10.0,17.0,71,0.00,,,0.03,Wunderground v.1.15,2013-01-19 03:29:00,
2013-01-18 21:30:00,37.8,29.2,29.77,WSW,238,12.0,17.0,71,0.00,,,0.03,Wunderground v.1.15,2013-01-19 03:30:00,
2013-01-18 21:33:00,37.8,29.2,29.77,WSW,252,12.0,13.0,71,0.00,,,0.03,Wunderground v.1.15,2013-01-19 03:33:00,
2013-01-18 21:37:00,37.9,29.3,29.77,WSW,256,10.0,17.0,71,0.00,,,0.03,Wunderground v.1.15,2013-01-19 03:37:00,
2013-01-18 21:38:00,37.9,29.0,29.77,West,264,12.0,17.0,70,0.00,,,0.03,Wunderground v.1.15,2013-01-19 03:38:00,
2013-01-18 21:39:00,38.0,29.1,29.76,WSW,243,12.0,17.0,70,0.00,,,0.03,Wunderground v.1.15,2013-01-19 03:39:00,
2013-01-18 21:42:00,37.9,29.0,29.76,West,276,12.0,18.0,70,0.00,,,0.03,Wunderground v.1.15,2013-01-19 03:42:00,
2013-01-18 21:43:00,37.8,29.2,29.76,West,263,15.0,15.0,71,0.00,,,0.03,Wunderground v.1.15,2013-01-19 03:43:00,
2013-01-18 21:47:00,37.8,29.2,29.76,SW,236,11.0,20.0,71,0.00,,,0.03,Wunderground v.1.15,2013-01-19 03:47:00,
2013-01-18 21:48:00,37.8,29.2,29.76,WSW,250,12.0,20.0,71,0.00,,,0.03,Wunderground v.1.15,2013-01-19 03:48:00,
2013-01-18 21:50:00,37.6,29.0,29.76,West,276,16.0,20.0,71,0.00,,,0.03,Wunderground v.1.15,2013-01-19 03:50:00,
2013-01-18 21:53:00,37.6,29.0,29.75,WSW,255,14.0,18.0,71,0.00,,,0.03,Wunderground v.1.15,2013-01-19 03:53:00,
2013-01-18 21:54:00,37.6,29.0,29.75,West,270,11.0,18.0,71,0.00,,,0.03,Wunderground v.1.15,2013-01-19 03:54:00,
2013-01-18 21:58:00,37.6,29.0,29.75,WSW,240,17.0,22.0,71,0.00,,,0.03,Wunderground v.1.15,2013-01-19 03:58:00,
2013-01-18 21:59:00,37.6,29.0,29.75,SW,236,18.0,22.0,71,0.00,,,0.03,Wunderground v.1.15,2013-01-19 03:59:00,
2013-01-18 22:01:00,37.6,29.0,29.75,WSW,249,14.0,23.0,71,0.00,,,0.03,Wunderground v.1.15,2013-01-19 04:01:00,
2013-01-18 22:04:00,37.6,29.0,29.75,WSW,245,20.0,23.0,71,0.00,,,0.03,Wunderground v.1.15,2013-01-19 04:04:00,
2013-01-18 22:05:00,37.6,29.0,29.75,WSW,239,19.0,23.0,71,0.00,,,0.03,Wunderground v.1.15,2013-01-19 04:05:00,
2013-01-18 22:08:00,37.6,29.0,29.75,West,262,12.0,23.0,71,0.00,,,0.03,Wunderground v.1.15,2013-01-19 04:08:00,
2013-01-18 22:09:00,37.6,29.0,29.75,SW,234,16.0,24.0,71,0.00,,,0.03,Wunderground v.1.15,2013-01-19 04:09:00,
2013-01-18 22:12:00,37.6,29.0,29.75,WSW,255,13.0,16.0,71,0.00,,,0.03,Wunderground v.1.15,2013-01-19 04:12:00,
2013-01-18 22:14:00,37.6,29.0,29.75,WSW,239,22.0,22.0,71,0.00,,,0.03,Wunderground v.1.15,2013-01-19 04:14:00,
2013-01-18 22:18:00,37.5,28.9,29.75,West,269,17.0,22.0,71,0.00,,,0.03,Wunderground v.1.15,2013-01-19 04:18:00,
2013-01-18 22:19:00,37.6,29.4,29.75,West,262,13.0,22.0,72,0.00,,,0.03,Wunderground v.1.15,2013-01-19 04:19:00,
2013-01-18 22:20:00,37.6,29.0,29.75,West,260,19.0,22.0,71,0.00,,,0.03,Wunderground v.1.15,2013-01-19 04:20:00,
2013-01-18 22:23:00,37.6,29.0,29.74,WSW,256,16.0,16.0,71,0.00,,,0.03,Wunderground v.1.15,2013-01-19 04:23:00,
2013-01-18 22:25:00,37.6,29.0,29.74,West,281,19.0,21.0,71,0.00,,,0.03,Wunderground v.1.15,2013-01-19 04:25:00,
2013-01-18 22:28:00,37.8,29.2,29.74,WSW,250,11.0,21.0,71,0.00,,,0.03,Wunderground v.1.15,2013-01-19 04:28:00,
2013-01-18 22:29:00,37.6,29.0,29.74,WSW,250,16.0,21.0,71,0.00,,,0.03,Wunderground v.1.15,2013-01-19 04:29:00,
2013-01-18 22:32:00,37.6,29.0,29.74,West,262,15.0,21.0,71,0.00,,,0.03,Wunderground v.1.15,2013-01-19 04:32:00,
2013-01-18 22:33:00,37.6,29.0,29.74,West,281,20.0,25.0,71,0.00,,,0.03,Wunderground v.1.15,2013-01-19 04:33:00,
2013-01-18 22:34:00,37.6,29.0,29.74,WSW,248,11.0,25.0,71,0.00,,,0.03,Wunderground v.1.15,2013-01-19 04:34:00,
2013-01-18 22:38:00,37.6,29.0,29.74,West,262,13.0,25.0,71,0.00,,,0.03,Wunderground v.1.15,2013-01-19 04:38:00,
2013-01-18 22:39:00,37.6,29.0,29.74,WSW,237,15.0,25.0,71,0.00,,,0.03,Wunderground v.1.15,2013-01-19 04:39:00,
2013-01-18 22:43:00,37.6,29.0,29.74,WSW,248,9.0,14.0,71,0.00,,,0.03,Wunderground v.1.15,2013-01-19 04:43:00,
2013-01-18 22:44:00,37.8,29.2,29.74,WSW,258,18.0,19.0,71,0.00,,,0.03,Wunderground v.1.15,2013-01-19 04:44:00,
2013-01-18 22:45:00,37.8,29.2,29.74,WSW,254,11.0,19.0,71,0.00,,,0.03,Wunderground v.1.15,2013-01-19 04:45:00,
2013-01-18 22:49:00,37.6,29.0,29.74,WSW,255,17.0,21.0,71,0.00,,,0.03,Wunderground v.1.15,2013-01-19 04:49:00,
2013-01-18 22:50:00,37.6,29.4,29.74,WSW,245,20.0,21.0,72,0.00,,,0.03,Wunderground v.1.15,2013-01-19 04:50:00,
2013-01-18 22:54:00,37.8,29.2,29.74,WSW,257,20.0,20.0,71,0.00,,,0.03,Wunderground v.1.15,2013-01-19 04:54:00,
2013-01-18 22:55:00,37.8,29.2,29.74,WSW,252,15.0,20.0,71,0.00,,,0.03,Wunderground v.1.15,2013-01-19 04:55:00,
2013-01-18 22:57:00,37.8,29.2,29.74,West,259,20.0,20.0,71,0.00,,,0.03,Wunderground v.1.15,2013-01-19 04:57:00,
2013-01-18 23:02:00,37.9,29.3,29.74,SW,219,14.0,16.0,71,0.00,,,0.03,Wunderground v.1.15,2013-01-19 05:02:00,
2013-01-18 23:03:00,37.9,29.3,29.74,West,266,14.0,16.0,71,0.00,,,0.03,Wunderground v.1.15,2013-01-19 05:03:00,
2013-01-18 23:04:00,37.9,29.3,29.74,SW,236,12.0,18.0,71,0.00,,,0.03,Wunderground v.1.15,2013-01-19 05:04:00,
2013-01-18 23:08:00,37.9,29.3,29.74,WSW,257,12.0,18.0,71,0.00,,,0.03,Wunderground v.1.15,2013-01-19 05:08:00,
2013-01-18 23:09:00,37.9,29.3,29.74,WSW,246,14.0,18.0,71,0.00,,,0.03,Wunderground v.1.15,2013-01-19 05:09:00,
2013-01-18 23:13:00,37.9,29.3,29.74,West,266,16.0,18.0,71,0.00,,,0.00,Wunderground v.1.15,2013-01-19 05:13:00,
2013-01-18 23:14:00,37.9,29.3,29.74,West,264,12.0,18.0,71,0.00,,,0.00,Wunderground v.1.15,2013-01-19 05:14:00,
2013-01-18 23:18:00,38.0,29.1,29.74,WSW,248,11.0,22.0,70,0.00,,,0.00,Wunderground v.1.15,2013-01-19 05:18:00,
2013-01-18 23:20:00,38.0,29.4,29.74,West,278,17.0,22.0,71,0.00,,,0.00,Wunderground v.1.15,2013-01-19 05:20:00,
2013-01-18 23:24:00,38.0,29.4,29.74,West,263,19.0,19.0,71,0.00,,,0.00,Wunderground v.1.15,2013-01-19 05:24:00,
2013-01-18 23:25:00,38.0,29.4,29.74,West,265,11.0,19.0,71,0.00,,,0.00,Wunderground v.1.15,2013-01-19 05:25:00,
2013-01-18 23:29:00,38.2,29.6,29.74,WSW,254,17.0,19.0,71,0.00,,,0.00,Wunderground v.1.15,2013-01-19 05:29:00,
2013-01-18 23:32:00,38.2,29.6,29.74,WSW,242,13.0,17.0,71,0.00,,,0.00,Wunderground v.1.15,2013-01-19 05:32:00,
2013-01-18 23:33:00,38.2,29.6,29.74,WSW,250,11.0,17.0,71,0.00,,,0.00,Wunderground v.1.15,2013-01-19 05:33:00,
2013-01-18 23:34:00,38.2,29.6,29.74,West,262,19.0,19.0,71,0.00,,,0.00,Wunderground v.1.15,2013-01-19 05:34:00,
2013-01-18 23:38:00,38.2,29.6,29.74,WSW,250,13.0,19.0,71,0.00,,,0.00,Wunderground v.1.15,2013-01-19 05:38:00,
2013-01-18 23:39:00,38.2,29.6,29.74,WSW,251,14.0,19.0,71,0.00,,,0.00,Wunderground v.1.15,2013-01-19 05:39:00,
2013-01-18 23:42:00,38.2,29.6,29.74,WSW,241,14.0,17.0,71,0.00,,,0.00,Wunderground v.1.15,2013-01-19 05:42:00,
2013-01-18 23:43:00,38.2,29.6,29.74,WSW,242,16.0,17.0,71,0.00,,,0.00,Wunderground v.1.15,2013-01-19 05:43:00,
2013-01-18 23:44:00,38.2,29.6,29.74,WSW,240,12.0,17.0,71,0.00,,,0.00,Wunderground v.1.15,2013-01-19 05:44:00,
2013-01-18 23:47:00,38.3,29.7,29.74,West,259,15.0,17.0,71,0.00,,,0.00,Wunderground v.1.15,2013-01-19 05:47:00,
2013-01-18 23:49:00,38.2,29.6,29.74,West,275,16.0,18.0,71,0.00,,,0.00,Wunderground v.1.15,2013-01-19 05:49:00,
2013-01-18 23:50:00,38.3,29.7,29.74,West,281,14.0,18.0,71,0.00,,,0.00,Wunderground v.1.15,2013-01-19 05:50:00,
2013-01-18 23:52:00,38.3,29.7,29.74,West,266,11.0,13.0,71,0.00,,,0.00,Wunderground v.1.15,2013-01-19 05:52:00,
2013-01-18 23:54:00,38.3,29.4,29.74,WSW,257,12.0,16.0,70,0.00,,,0.00,Wunderground v.1.15,2013-01-19 05:54:00,
2013-01-18 23:58:00,38.5,29.9,29.74,West,270,10.0,17.0,71,0.00,,,0.00,Wunderground v.1.15,2013-01-19 05:58:00,
2013-01-18 23:59:00,38.3,29.7,29.74,WSW,243,12.0,17.0,71,0.00,,,0.00,Wunderground v.1.15,2013-01-19 05:59:00,